KLM765 EHAM-TNCA

Flight info

Callsign KLM765
Flight time 9h 31m
Altitude 34000
Route IDRID L980 MANGO DCT ENHAQ DCT GAJIT DCT BAPHU DCT LESLU/M084F340 DCT SOMAX DCT 49N020W 47N030W 45N040W 40N050W/M084F360 DCT AYTTE DCT OPAUL/N0489F380 DCT SCAPA SCAPA2A
Aircraft B77W/H-SDE1E2E3FGHIJ2J3J4J5M1RWXY/LB1D1

Departure

Time 2026-05-03 20:34
Airport Amsterdam Airport Schiphol (EHAM)

Arrival

Time 2026-05-04 06:05
Airport Queen Beatrix International Airport (TNCA)
Time Latitude Longitude Altitude Speed Heading
2026-05-03 20:15 52.31221 4.76860 4 ft 0 kts 303°
2026-05-03 20:21 52.31209 4.76888 4 ft 4 kts 307°
2026-05-03 20:21 52.31192 4.76922 6 ft 4 kts 317°
2026-05-03 20:21 52.31173 4.76945 7 ft 3 kts 332°
2026-05-03 20:22 52.31154 4.76950 7 ft 4 kts 40°
2026-05-03 20:22 52.31139 4.76929 6 ft 0 kts 33°
2026-05-03 20:22 52.31154 4.76945 4 ft 4 kts 33°
2026-05-03 20:22 52.31176 4.76969 4 ft 4 kts 33°
2026-05-03 20:23 52.31199 4.76994 4 ft 4 kts 33°
2026-05-03 20:23 52.31217 4.77014 4 ft 0 kts 33°
2026-05-03 20:26 52.31255 4.77054 4 ft 12 kts 33°
2026-05-03 20:26 52.31323 4.77127 4 ft 12 kts 33°
2026-05-03 20:26 52.31389 4.77203 4 ft 12 kts 43°
2026-05-03 20:26 52.31404 4.77322 4 ft 12 kts 121°
2026-05-03 20:27 52.31346 4.77419 4 ft 13 kts 136°
2026-05-03 20:27 52.31272 4.77496 4 ft 13 kts 165°
2026-05-03 20:27 52.31169 4.77500 4 ft 17 kts 183°
2026-05-03 20:27 52.31050 4.77490 4 ft 17 kts 183°
2026-05-03 20:28 52.30930 4.77478 4 ft 17 kts 183°
2026-05-03 20:28 52.30811 4.77467 4 ft 17 kts 183°
2026-05-03 20:28 52.30703 4.77457 4 ft 12 kts 181°
2026-05-03 20:28 52.30622 4.77498 4 ft 12 kts 154°
2026-05-03 20:29 52.30591 4.77524 4 ft 0 kts 151°
2026-05-03 20:30 52.30563 4.77549 4 ft 7 kts 151°
2026-05-03 20:30 52.30533 4.77576 4 ft 0 kts 152°
2026-05-03 20:31 52.30521 4.77586 3 ft 5 kts 152°
2026-05-03 20:31 52.30470 4.77631 4 ft 10 kts 153°
2026-05-03 20:31 52.30406 4.77609 3 ft 11 kts 229°
2026-05-03 20:32 52.30380 4.77549 3 ft 0 kts 237°
2026-05-03 20:32 52.30374 4.77535 3 ft 8 kts 237°
2026-05-03 20:33 52.30253 4.77230 1 ft 66 kts 237°
2026-05-03 20:33 52.29883 4.76256 1 ft 134 kts 238°
2026-05-03 20:33 52.29281 4.74701 11 ft 186 kts 236°
2026-05-03 20:33 52.28583 4.72853 479 ft 190 kts 238°
2026-05-03 20:34 52.27850 4.71099 1122 ft 192 kts 225°
2026-05-03 20:34 52.26923 4.69592 1799 ft 185 kts 224°
2026-05-03 20:34 52.26005 4.68179 2383 ft 184 kts 224°
2026-05-03 20:34 52.25021 4.66689 2487 ft 204 kts 223°
2026-05-03 20:35 52.24088 4.64840 2558 ft 220 kts 250°
2026-05-03 20:35 52.23712 4.62348 2737 ft 235 kts 254°
2026-05-03 20:35 52.23235 4.59738 3161 ft 245 kts 251°
2026-05-03 20:35 52.22692 4.57063 3718 ft 250 kts 251°
2026-05-03 20:36 52.22132 4.54357 4374 ft 254 kts 251°
2026-05-03 20:36 52.21562 4.51626 5050 ft 255 kts 251°
2026-05-03 20:36 52.20985 4.48879 5702 ft 258 kts 250°
2026-05-03 20:36 52.20401 4.46103 6344 ft 260 kts 250°
2026-05-03 20:37 52.19811 4.43300 6950 ft 263 kts 250°
2026-05-03 20:37 52.19213 4.40466 7543 ft 265 kts 250°
2026-05-03 20:37 52.18613 4.37624 8161 ft 267 kts 250°
2026-05-03 20:37 52.18006 4.34752 8762 ft 270 kts 250°
2026-05-03 20:38 52.17599 4.32831 9164 ft 271 kts 250°
2026-05-03 20:38 52.16982 4.29918 9755 ft 273 kts 250°
2026-05-03 20:38 52.16356 4.26969 10255 ft 280 kts 250°
2026-05-03 20:38 52.15707 4.23920 10407 ft 299 kts 250°
2026-05-03 20:39 52.15002 4.20612 10578 ft 319 kts 250°
2026-05-03 20:39 52.14251 4.17092 10736 ft 340 kts 250°
2026-05-03 20:39 52.13456 4.13374 11078 ft 354 kts 250°
2026-05-03 20:39 52.12637 4.09543 11672 ft 362 kts 250°
2026-05-03 20:40 52.11804 4.05653 12433 ft 366 kts 250°
2026-05-03 20:40 52.10963 4.01733 13279 ft 369 kts 250°
2026-05-03 20:40 52.10112 3.97775 14047 ft 373 kts 250°
2026-05-03 20:40 52.09251 3.93777 14780 ft 376 kts 250°
2026-05-03 20:41 52.08382 3.89750 15503 ft 380 kts 250°
2026-05-03 20:41 52.07500 3.85682 16238 ft 383 kts 250°
2026-05-03 20:41 52.06612 3.81588 16957 ft 386 kts 249°
2026-05-03 20:41 52.05709 3.77450 17678 ft 390 kts 249°
2026-05-03 20:42 52.04817 3.73365 18349 ft 394 kts 249°
2026-05-03 20:42 52.03896 3.69153 18962 ft 397 kts 249°
2026-05-03 20:42 52.02956 3.64862 19614 ft 399 kts 249°
2026-05-03 20:42 52.02022 3.60601 20257 ft 402 kts 249°
2026-05-03 20:43 52.01091 3.56366 20874 ft 405 kts 249°
2026-05-03 20:43 52.00138 3.52041 21485 ft 408 kts 249°
2026-05-03 20:43 51.98986 3.47841 22057 ft 409 kts 237°
2026-05-03 20:43 51.97316 3.44089 22650 ft 411 kts 232°
2026-05-03 20:44 51.95533 3.40374 23234 ft 414 kts 232°
2026-05-03 20:44 51.93774 3.36652 23774 ft 417 kts 232°
2026-05-03 20:44 51.92038 3.32893 24276 ft 419 kts 233°
2026-05-03 20:44 51.90306 3.29088 24792 ft 420 kts 233°
2026-05-03 20:45 51.88571 3.25267 25267 ft 422 kts 233°
2026-05-03 20:45 51.86904 3.21356 25713 ft 424 kts 238°
2026-05-03 20:45 51.85636 3.17027 26112 ft 430 kts 247°
2026-05-03 20:45 51.84705 3.12404 26535 ft 434 kts 252°
2026-05-03 20:46 51.84161 3.07569 26953 ft 440 kts 260°
2026-05-03 20:46 51.83863 3.02625 27359 ft 443 kts 261°
2026-05-03 20:46 51.83586 2.97714 27735 ft 446 kts 261°
2026-05-03 20:46 51.83296 2.92718 28106 ft 448 kts 261°
2026-05-03 20:47 51.82986 2.87682 28479 ft 451 kts 260°
2026-05-03 20:47 51.82661 2.82632 28839 ft 453 kts 260°
2026-05-03 20:47 51.82329 2.77601 29173 ft 455 kts 259°
2026-05-03 20:47 51.81989 2.72498 29492 ft 457 kts 259°
2026-05-03 20:48 51.81646 2.67385 29821 ft 458 kts 259°
2026-05-03 20:48 51.81299 2.62267 30211 ft 457 kts 259°
2026-05-03 20:48 51.80948 2.57171 30569 ft 457 kts 259°
2026-05-03 20:48 51.80595 2.52077 30890 ft 457 kts 259°
2026-05-03 20:49 51.80239 2.46967 31192 ft 457 kts 259°
2026-05-03 20:49 51.79882 2.41876 31508 ft 457 kts 259°
2026-05-03 20:49 51.79523 2.36772 31801 ft 457 kts 260°
2026-05-03 20:50 51.78797 2.26537 31899 ft 459 kts 259°
2026-05-03 20:50 51.78105 2.16293 31906 ft 459 kts 261°
2026-05-03 20:51 51.77518 2.06040 31918 ft 459 kts 261°
2026-05-03 20:51 51.76926 1.95776 31910 ft 459 kts 261°
2026-05-03 20:52 51.76307 1.85502 32027 ft 461 kts 261°
2026-05-03 20:52 51.75990 1.80361 32351 ft 460 kts 261°
2026-05-03 20:52 51.75671 1.75231 32717 ft 459 kts 261°
2026-05-03 20:52 51.75352 1.70124 33068 ft 457 kts 261°
2026-05-03 20:53 51.75031 1.65022 33374 ft 457 kts 261°
2026-05-03 20:53 51.74708 1.59928 33658 ft 457 kts 261°
2026-05-03 20:53 51.74383 1.54829 33833 ft 457 kts 261°
2026-05-03 20:54 51.73725 1.44625 33902 ft 458 kts 261°
2026-05-03 20:54 51.72723 1.29320 33907 ft 457 kts 260°
2026-05-03 20:55 51.72044 1.19129 33906 ft 457 kts 260°
2026-05-03 20:55 51.71357 1.08952 33909 ft 457 kts 260°
2026-05-03 20:56 51.70662 0.98774 33912 ft 457 kts 260°
2026-05-03 20:56 51.69958 0.88580 33915 ft 457 kts 260°
2026-05-03 20:57 51.69242 0.78394 33912 ft 457 kts 258°
2026-05-03 20:57 51.68246 0.68302 33921 ft 456 kts 257°
2026-05-03 20:58 51.67161 0.58223 34094 ft 457 kts 257°
2026-05-03 20:58 51.66618 0.53179 34346 ft 456 kts 257°
2026-05-03 20:58 51.66080 0.48155 34596 ft 455 kts 257°
2026-05-03 20:59 51.65544 0.43137 34820 ft 455 kts 257°
2026-05-03 20:59 51.65007 0.38113 35020 ft 455 kts 257°
2026-05-03 20:59 51.64470 0.33094 35176 ft 456 kts 257°
2026-05-03 20:59 51.63930 0.28055 35294 ft 458 kts 257°
2026-05-03 21:00 51.63384 0.22993 35399 ft 460 kts 257°
2026-05-03 21:00 51.63021 0.19633 35471 ft 461 kts 257°
2026-05-03 21:00 51.62282 0.12830 35643 ft 462 kts 257°
2026-05-03 21:00 51.61733 0.07797 35740 ft 463 kts 257°
2026-05-03 21:01 51.60614 -0.02393 35864 ft 465 kts 257°
2026-05-03 21:01 51.59477 -0.12653 35908 ft 467 kts 257°
2026-05-03 21:02 51.58573 -0.20752 35941 ft 468 kts 257°
2026-05-03 21:02 51.57415 -0.31049 35907 ft 468 kts 257°
2026-05-03 21:03 51.56251 -0.41321 35917 ft 467 kts 257°
2026-05-03 21:03 51.55078 -0.51590 35913 ft 467 kts 257°
2026-05-03 21:04 51.53893 -0.61867 35916 ft 468 kts 257°
2026-05-03 21:04 51.52697 -0.72157 35909 ft 469 kts 257°
2026-05-03 21:05 51.51491 -0.82456 35911 ft 470 kts 257°
2026-05-03 21:05 51.50275 -0.92765 35906 ft 470 kts 257°
2026-05-03 21:06 51.49049 -1.03064 35912 ft 470 kts 256°
2026-05-03 21:06 51.47814 -1.13364 35910 ft 470 kts 256°
2026-05-03 21:07 51.46570 -1.23660 35910 ft 471 kts 256°
2026-05-03 21:07 51.45312 -1.33989 35906 ft 471 kts 256°
2026-05-03 21:08 51.44047 -1.44292 35909 ft 471 kts 256°
2026-05-03 21:08 51.42773 -1.54600 35912 ft 471 kts 256°
2026-05-03 21:09 51.41491 -1.64901 35922 ft 471 kts 256°
2026-05-03 21:09 51.39991 -1.75108 35924 ft 469 kts 249°
2026-05-03 21:10 51.37768 -1.84916 35935 ft 469 kts 248°
2026-05-03 21:10 51.35570 -1.94706 35931 ft 471 kts 249°
2026-05-03 21:11 51.33889 -2.04829 35928 ft 474 kts 259°
2026-05-03 21:11 51.32993 -2.15283 35920 ft 475 kts 260°
2026-05-03 21:12 51.32102 -2.25745 35917 ft 475 kts 259°
2026-05-03 21:12 51.31175 -2.36189 35933 ft 475 kts 259°
2026-05-03 21:13 51.30232 -2.46555 35930 ft 475 kts 259°
2026-05-03 21:13 51.29269 -2.57007 35931 ft 476 kts 259°
2026-05-03 21:14 51.28299 -2.67450 35940 ft 475 kts 259°
2026-05-03 21:14 51.27319 -2.77893 35943 ft 475 kts 259°
2026-05-03 21:15 51.26330 -2.88339 35931 ft 476 kts 259°
2026-05-03 21:15 51.25332 -2.98776 35933 ft 476 kts 259°
2026-05-03 21:16 51.24320 -3.09245 35914 ft 477 kts 259°
2026-05-03 21:16 51.23300 -3.19706 35915 ft 477 kts 259°
2026-05-03 21:17 51.22446 -3.28395 35915 ft 477 kts 259°
2026-05-03 21:17 51.21232 -3.40618 35915 ft 478 kts 259°
2026-05-03 21:18 51.20183 -3.51084 35917 ft 478 kts 259°
2026-05-03 21:18 51.19131 -3.61478 35917 ft 478 kts 259°
2026-05-03 21:19 51.18065 -3.71939 35920 ft 478 kts 259°
2026-05-03 21:19 51.17517 -3.82525 35927 ft 480 kts 266°
2026-05-03 21:20 51.17294 -3.93173 35928 ft 481 kts 266°
2026-05-03 21:20 51.17058 -4.03825 35923 ft 481 kts 266°
2026-05-03 21:21 51.16788 -4.14474 35925 ft 481 kts 266°
2026-05-03 21:21 51.16496 -4.25122 35918 ft 481 kts 266°
2026-05-03 21:22 51.16192 -4.35766 35921 ft 481 kts 266°
2026-05-03 21:22 51.15879 -4.46425 35923 ft 482 kts 266°
2026-05-03 21:23 51.15557 -4.57087 35925 ft 482 kts 266°
2026-05-03 21:23 51.15226 -4.67757 35924 ft 482 kts 266°
2026-05-03 21:24 51.14885 -4.78403 35924 ft 483 kts 265°
2026-05-03 21:24 51.14534 -4.89083 35927 ft 483 kts 265°
2026-05-03 21:25 51.14234 -4.97961 35922 ft 483 kts 265°
2026-05-03 21:25 51.13803 -5.10385 35928 ft 484 kts 265°
2026-05-03 21:26 51.13422 -5.21081 35925 ft 484 kts 265°
2026-05-03 21:26 51.13031 -5.31783 35931 ft 484 kts 265°
2026-05-03 21:27 51.12695 -5.40756 35927 ft 485 kts 265°
2026-05-03 21:27 51.12285 -5.51460 35928 ft 485 kts 265°
2026-05-03 21:28 51.11865 -5.62182 35931 ft 485 kts 265°
2026-05-03 21:28 51.11438 -5.72832 35933 ft 486 kts 265°
2026-05-03 21:29 51.10998 -5.83563 35938 ft 486 kts 265°
2026-05-03 21:29 51.10547 -5.94300 35935 ft 486 kts 265°
2026-05-03 21:30 51.10087 -6.05032 35936 ft 486 kts 265°
2026-05-03 21:30 51.09618 -6.15743 35945 ft 485 kts 265°
2026-05-03 21:31 51.09138 -6.26465 35946 ft 486 kts 265°
2026-05-03 21:31 51.08649 -6.37178 35947 ft 486 kts 265°
2026-05-03 21:32 51.08153 -6.47838 35944 ft 487 kts 265°
2026-05-03 21:32 51.07643 -6.58585 35957 ft 488 kts 265°
2026-05-03 21:33 51.07122 -6.69356 35951 ft 489 kts 265°
2026-05-03 21:33 51.06589 -6.80139 35950 ft 489 kts 265°
2026-05-03 21:34 51.06047 -6.90928 35952 ft 489 kts 265°
2026-05-03 21:34 51.05495 -7.01716 35946 ft 490 kts 265°
2026-05-03 21:35 51.04932 -7.12506 35954 ft 490 kts 265°
2026-05-03 21:35 51.04359 -7.23305 35962 ft 491 kts 265°
2026-05-03 21:36 51.03774 -7.34131 35957 ft 493 kts 265°
2026-05-03 21:36 51.03176 -7.45016 35965 ft 496 kts 265°
2026-05-03 21:37 51.02566 -7.55935 35956 ft 497 kts 265°
2026-05-03 21:37 51.01950 -7.66777 35952 ft 495 kts 265°
2026-05-03 21:38 51.01329 -7.77524 35949 ft 493 kts 265°
2026-05-03 21:38 51.00696 -7.88332 35946 ft 490 kts 265°
2026-05-03 21:39 51.00049 -7.99123 35965 ft 492 kts 264°
2026-05-03 21:39 50.98978 -8.09868 35972 ft 494 kts 260°
2026-05-03 21:40 50.97737 -8.20632 35973 ft 497 kts 260°
2026-05-03 21:40 50.96487 -8.31444 35962 ft 499 kts 260°
2026-05-03 21:41 50.95248 -8.42270 35961 ft 498 kts 260°
2026-05-03 21:41 50.94014 -8.53044 35951 ft 495 kts 260°
2026-05-03 21:42 50.92787 -8.63672 35962 ft 492 kts 260°
2026-05-03 21:42 50.91545 -8.74333 35974 ft 492 kts 260°
2026-05-03 21:43 50.90290 -8.85012 35974 ft 494 kts 260°
2026-05-03 21:43 50.89021 -8.95723 35967 ft 495 kts 260°
2026-05-03 21:44 50.87740 -9.06441 35966 ft 495 kts 260°
2026-05-03 21:44 50.86451 -9.17141 35965 ft 494 kts 260°
2026-05-03 21:45 50.85152 -9.27831 35973 ft 495 kts 260°
2026-05-03 21:45 50.83843 -9.38520 35976 ft 495 kts 260°
2026-05-03 21:46 50.82523 -9.49222 35967 ft 496 kts 260°
2026-05-03 21:46 50.81191 -9.59927 35968 ft 496 kts 260°
2026-05-03 21:47 50.79849 -9.70626 35972 ft 496 kts 260°
2026-05-03 21:47 50.78499 -9.81311 35971 ft 496 kts 260°
2026-05-03 21:48 50.77137 -9.91999 35972 ft 496 kts 260°
2026-05-03 21:48 50.75775 -10.02616 35972 ft 497 kts 260°
2026-05-03 21:49 50.74393 -10.13301 35973 ft 497 kts 260°
2026-05-03 21:49 50.72998 -10.24001 35977 ft 498 kts 260°
2026-05-03 21:50 50.71591 -10.34717 35985 ft 499 kts 260°
2026-05-03 21:50 50.70172 -10.45446 35979 ft 500 kts 260°
2026-05-03 21:51 50.68740 -10.56183 35989 ft 501 kts 260°
2026-05-03 21:51 50.67297 -10.66924 35987 ft 501 kts 260°
2026-05-03 21:52 50.65845 -10.77654 35989 ft 500 kts 260°
2026-05-03 21:52 50.64386 -10.88352 35991 ft 499 kts 260°
2026-05-03 21:53 50.62928 -10.98974 35997 ft 499 kts 260°
2026-05-03 21:53 50.61450 -11.09663 36002 ft 500 kts 259°
2026-05-03 21:54 50.59958 -11.20371 36007 ft 501 kts 259°
2026-05-03 21:54 50.58455 -11.31077 36010 ft 501 kts 259°
2026-05-03 21:55 50.56942 -11.41780 36011 ft 501 kts 259°
2026-05-03 21:55 50.55420 -11.52475 36015 ft 500 kts 259°
2026-05-03 21:56 50.53890 -11.63147 36028 ft 500 kts 259°
2026-05-03 21:56 50.52349 -11.73819 36030 ft 501 kts 259°
2026-05-03 21:57 50.50796 -11.84510 36036 ft 503 kts 259°
2026-05-03 21:57 50.49226 -11.95239 36040 ft 505 kts 259°
2026-05-03 21:58 50.47639 -12.05998 36046 ft 506 kts 259°
2026-05-03 21:58 50.46039 -12.16777 36050 ft 507 kts 259°
2026-05-03 21:59 50.44434 -12.27519 36047 ft 504 kts 259°
2026-05-03 21:59 50.42828 -12.38188 36048 ft 501 kts 259°
2026-05-03 22:00 50.41222 -12.48788 36053 ft 498 kts 259°
2026-05-03 22:00 50.39609 -12.59366 36075 ft 500 kts 259°
2026-05-03 22:01 50.37978 -12.69999 36083 ft 504 kts 259°
2026-05-03 22:01 50.36335 -12.80634 36077 ft 506 kts 259°
2026-05-03 22:02 50.34672 -12.91322 36070 ft 504 kts 259°
2026-05-03 22:02 50.33011 -13.01922 36075 ft 500 kts 259°
2026-05-03 22:03 50.31350 -13.12462 36079 ft 497 kts 259°
2026-05-03 22:03 50.29686 -13.22958 36095 ft 497 kts 259°
2026-05-03 22:04 50.28008 -13.33472 36105 ft 499 kts 258°
2026-05-03 22:04 50.26318 -13.43999 36101 ft 499 kts 258°
2026-05-03 22:05 50.24618 -13.54516 36105 ft 498 kts 258°
2026-05-03 22:05 50.22913 -13.64992 36107 ft 497 kts 258°
2026-05-03 22:06 50.21203 -13.75437 36113 ft 497 kts 258°
2026-05-03 22:06 50.19483 -13.85884 36119 ft 497 kts 258°
2026-05-03 22:07 50.17752 -13.96333 36122 ft 497 kts 258°
2026-05-03 22:07 50.16013 -14.06761 36125 ft 496 kts 258°
2026-05-03 22:08 50.14268 -14.17167 36127 ft 496 kts 258°
2026-05-03 22:08 50.12513 -14.27569 36129 ft 496 kts 258°
2026-05-03 22:09 50.10762 -14.37882 36129 ft 496 kts 258°
2026-05-03 22:10 50.08102 -14.53438 36142 ft 495 kts 258°
2026-05-03 22:10 50.06318 -14.63790 36141 ft 495 kts 258°
2026-05-03 22:11 50.04526 -14.74133 36145 ft 495 kts 258°
2026-05-03 22:11 50.02726 -14.84462 36153 ft 494 kts 258°
2026-05-03 22:12 50.00921 -14.94767 36154 ft 494 kts 258°
2026-05-03 22:12 49.99109 -15.05059 36156 ft 494 kts 258°
2026-05-03 22:13 49.97299 -15.15348 36160 ft 494 kts 258°
2026-05-03 22:13 49.95482 -15.25635 36161 ft 493 kts 258°
2026-05-03 22:14 49.93659 -15.35897 36164 ft 493 kts 258°
2026-05-03 22:14 49.91829 -15.46135 36171 ft 492 kts 258°
2026-05-03 22:15 49.89991 -15.56364 36175 ft 492 kts 258°
2026-05-03 22:15 49.88143 -15.66581 36175 ft 492 kts 258°
2026-05-03 22:16 49.86917 -15.73333 36176 ft 491 kts 258°
2026-05-03 22:16 49.84429 -15.86956 36180 ft 491 kts 257°
2026-05-03 22:17 49.82561 -15.97117 36186 ft 490 kts 257°
2026-05-03 22:17 49.80684 -16.07270 36186 ft 490 kts 257°
2026-05-03 22:18 49.78801 -16.17402 36189 ft 490 kts 257°
2026-05-03 22:18 49.76923 -16.27453 36192 ft 489 kts 257°
2026-05-03 22:19 49.75025 -16.37553 36195 ft 489 kts 257°
2026-05-03 22:19 49.73119 -16.47644 36197 ft 489 kts 257°
2026-05-03 22:20 49.71204 -16.57723 36203 ft 489 kts 257°
2026-05-03 22:20 49.69607 -16.66090 36207 ft 488 kts 257°
2026-05-03 22:21 49.67679 -16.76143 36214 ft 488 kts 257°
2026-05-03 22:21 49.65744 -16.86178 36212 ft 488 kts 257°
2026-05-03 22:22 49.63801 -16.96204 36213 ft 488 kts 257°
2026-05-03 22:22 49.61849 -17.06221 36213 ft 488 kts 257°
2026-05-03 22:23 49.59890 -17.16224 36226 ft 487 kts 257°
2026-05-03 22:23 49.57924 -17.26211 36233 ft 487 kts 257°
2026-05-03 22:24 49.55950 -17.36186 36231 ft 486 kts 257°
2026-05-03 22:24 49.53969 -17.46144 36223 ft 486 kts 257°
2026-05-03 22:25 49.51981 -17.56086 36233 ft 486 kts 257°
2026-05-03 22:25 49.49986 -17.66015 36236 ft 486 kts 257°
2026-05-03 22:26 49.47983 -17.75929 36236 ft 485 kts 257°
2026-05-03 22:26 49.45974 -17.85826 36240 ft 485 kts 257°
2026-05-03 22:27 49.43958 -17.95709 36245 ft 485 kts 257°
2026-05-03 22:27 49.41933 -18.05582 36239 ft 484 kts 257°
2026-05-03 22:28 49.39903 -18.15436 36247 ft 484 kts 257°
2026-05-03 22:28 49.37866 -18.25271 36252 ft 484 kts 256°
2026-05-03 22:29 49.35820 -18.35104 36252 ft 484 kts 256°
2026-05-03 22:29 49.33768 -18.44918 36249 ft 483 kts 256°
2026-05-03 22:30 49.31707 -18.54724 36255 ft 483 kts 256°
2026-05-03 22:30 49.29638 -18.64522 36260 ft 483 kts 256°
2026-05-03 22:31 49.27563 -18.74302 36262 ft 483 kts 256°
2026-05-03 22:31 49.25479 -18.84078 36260 ft 483 kts 256°
2026-05-03 22:32 49.23386 -18.93845 36268 ft 483 kts 256°
2026-05-03 22:32 49.21285 -19.03609 36262 ft 483 kts 256°
2026-05-03 22:33 49.19177 -19.13352 36256 ft 483 kts 256°
2026-05-03 22:33 49.17061 -19.23093 36271 ft 483 kts 256°
2026-05-03 22:34 49.14934 -19.32834 36265 ft 483 kts 256°
2026-05-03 22:34 49.12813 -19.42503 36272 ft 483 kts 256°
2026-05-03 22:35 49.10671 -19.52222 36278 ft 483 kts 256°
2026-05-03 22:35 49.08522 -19.61931 36276 ft 483 kts 256°
2026-05-03 22:36 49.06363 -19.71639 36279 ft 484 kts 256°
2026-05-03 22:36 49.04193 -19.81352 36279 ft 484 kts 256°
2026-05-03 22:37 49.02016 -19.91056 36279 ft 484 kts 256°
2026-05-03 22:37 48.99870 -20.00760 36282 ft 482 kts 259°
2026-05-03 22:38 48.98316 -20.10646 36293 ft 480 kts 262°
2026-05-03 22:38 48.96858 -20.20559 36287 ft 480 kts 262°
2026-05-03 22:39 48.95375 -20.30469 36290 ft 480 kts 262°
2026-05-03 22:39 48.93865 -20.40355 36291 ft 480 kts 262°
2026-05-03 22:40 48.92338 -20.50239 36290 ft 480 kts 261°
2026-05-03 22:40 48.90802 -20.60121 36293 ft 480 kts 261°
2026-05-03 22:41 48.89260 -20.69983 36292 ft 480 kts 261°
2026-05-03 22:41 48.87711 -20.79841 36292 ft 480 kts 261°
2026-05-03 22:42 48.86153 -20.89688 36295 ft 479 kts 261°
2026-05-03 22:42 48.84588 -20.99525 36297 ft 479 kts 261°
2026-05-03 22:43 48.83016 -21.09348 36302 ft 479 kts 261°
2026-05-03 22:43 48.81447 -21.19092 36305 ft 478 kts 261°
2026-05-03 22:44 48.79860 -21.28894 36306 ft 478 kts 261°
2026-05-03 22:44 48.78265 -21.38684 36300 ft 478 kts 261°
2026-05-03 22:45 48.76661 -21.48475 36303 ft 478 kts 261°
2026-05-03 22:45 48.75049 -21.58255 36305 ft 478 kts 261°
2026-05-03 22:46 48.73430 -21.68025 36310 ft 478 kts 261°
2026-05-03 22:46 48.71802 -21.77788 36313 ft 478 kts 261°
2026-05-03 22:47 48.70166 -21.87546 36310 ft 478 kts 261°
2026-05-03 22:47 48.68522 -21.97301 36318 ft 478 kts 261°
2026-05-03 22:48 48.66870 -22.07043 36314 ft 478 kts 261°
2026-05-03 22:48 48.65209 -22.16784 36315 ft 478 kts 261°
2026-05-03 22:49 48.63542 -22.26512 36330 ft 476 kts 259°
2026-05-03 22:49 48.62716 -22.31293 36310 ft 465 kts 259°
2026-05-03 22:49 48.61900 -22.36005 36320 ft 463 kts 259°
2026-05-03 22:50 48.60276 -22.45374 36315 ft 459 kts 259°
2026-05-03 22:50 48.58652 -22.54707 36327 ft 460 kts 259°
2026-05-03 22:51 48.57014 -22.64069 36326 ft 461 kts 259°
2026-05-03 22:51 48.55367 -22.73423 36325 ft 461 kts 259°
2026-05-03 22:52 48.53723 -22.82703 36328 ft 461 kts 259°
2026-05-03 22:52 48.52064 -22.92030 36335 ft 461 kts 259°
2026-05-03 22:53 48.50394 -23.01365 36334 ft 461 kts 259°
2026-05-03 22:53 48.48717 -23.10692 36330 ft 461 kts 259°
2026-05-03 22:54 48.47032 -23.20010 36336 ft 461 kts 258°
2026-05-03 22:54 48.45339 -23.29330 36339 ft 461 kts 258°
2026-05-03 22:55 48.43640 -23.38635 36337 ft 461 kts 258°
2026-05-03 22:55 48.41932 -23.47942 36341 ft 461 kts 258°
2026-05-03 22:56 48.40217 -23.57244 36340 ft 461 kts 258°
2026-05-03 22:56 48.38494 -23.66536 36343 ft 461 kts 258°
2026-05-03 22:57 48.36765 -23.75814 36347 ft 461 kts 258°
2026-05-03 22:57 48.35027 -23.85096 36351 ft 461 kts 258°
2026-05-03 22:58 48.33282 -23.94370 36349 ft 461 kts 258°
2026-05-03 22:58 48.31530 -24.03634 36363 ft 461 kts 257°
2026-05-03 22:59 48.29773 -24.12881 36351 ft 460 kts 257°
2026-05-03 22:59 48.28020 -24.22061 36357 ft 460 kts 257°
2026-05-03 23:00 48.26250 -24.31282 36353 ft 460 kts 257°
2026-05-03 23:00 48.24473 -24.40496 36359 ft 459 kts 257°
2026-05-03 23:01 48.22691 -24.49695 36355 ft 459 kts 257°
2026-05-03 23:01 48.20902 -24.58883 36363 ft 459 kts 257°
2026-05-03 23:02 48.19109 -24.68052 36369 ft 458 kts 257°
2026-05-03 23:02 48.17307 -24.77219 36368 ft 458 kts 257°
2026-05-03 23:03 48.15501 -24.86363 36370 ft 458 kts 256°
2026-05-03 23:03 48.13689 -24.95492 36375 ft 457 kts 256°
2026-05-03 23:04 48.11872 -25.04609 36372 ft 457 kts 256°
2026-05-03 23:04 48.10046 -25.13727 36374 ft 457 kts 256°
2026-05-03 23:05 48.08225 -25.22773 36374 ft 457 kts 256°
2026-05-03 23:05 48.06387 -25.31864 36376 ft 457 kts 256°
2026-05-03 23:06 48.04544 -25.40940 36377 ft 456 kts 256°
2026-05-03 23:06 48.02695 -25.50002 36382 ft 456 kts 256°
2026-05-03 23:07 48.00840 -25.59057 36385 ft 456 kts 256°
2026-05-03 23:07 47.98979 -25.68096 36384 ft 455 kts 255°
2026-05-03 23:08 47.97112 -25.77122 36389 ft 455 kts 255°
2026-05-03 23:08 47.95237 -25.86145 36391 ft 455 kts 255°
2026-05-03 23:09 47.93355 -25.95163 36394 ft 455 kts 255°
2026-05-03 23:09 47.91470 -26.04159 36398 ft 455 kts 255°
2026-05-03 23:10 47.89896 -26.11636 36397 ft 454 kts 255°
2026-05-03 23:10 47.87999 -26.20610 36399 ft 454 kts 255°
2026-05-03 23:11 47.86097 -26.29570 36392 ft 454 kts 255°
2026-05-03 23:11 47.84189 -26.38522 36395 ft 453 kts 255°
2026-05-03 23:12 47.82275 -26.47461 36397 ft 453 kts 254°
2026-05-03 23:12 47.80354 -26.56391 36398 ft 453 kts 254°
2026-05-03 23:13 47.78428 -26.65310 36399 ft 453 kts 254°
2026-05-03 23:13 47.76496 -26.74216 36402 ft 452 kts 254°
2026-05-03 23:14 47.74558 -26.83110 36401 ft 452 kts 254°
2026-05-03 23:14 47.72615 -26.91988 36404 ft 452 kts 254°
2026-05-03 23:15 47.70665 -27.00865 36407 ft 452 kts 253°
2026-05-03 23:15 47.68707 -27.09736 36408 ft 452 kts 253°
2026-05-03 23:16 47.66827 -27.18219 36412 ft 452 kts 253°
2026-05-03 23:16 47.64856 -27.27076 36414 ft 452 kts 253°
2026-05-03 23:17 47.62880 -27.35922 36418 ft 452 kts 253°
2026-05-03 23:17 47.60897 -27.44758 36422 ft 452 kts 253°
2026-05-03 23:18 47.58909 -27.53581 36423 ft 452 kts 253°
2026-05-03 23:18 47.56912 -27.62406 36415 ft 452 kts 253°
2026-05-03 23:19 47.54922 -27.71168 36425 ft 452 kts 253°
2026-05-03 23:19 47.52913 -27.79973 36423 ft 452 kts 253°
2026-05-03 23:20 47.50896 -27.88776 36423 ft 452 kts 253°
2026-05-03 23:20 47.48874 -27.97569 36425 ft 452 kts 253°
2026-05-03 23:21 47.46845 -28.06355 36429 ft 452 kts 252°
2026-05-03 23:21 47.44805 -28.15149 36427 ft 452 kts 252°
2026-05-03 23:22 47.41736 -28.28315 36428 ft 452 kts 252°
2026-05-03 23:22 47.39683 -28.37079 36429 ft 452 kts 252°
2026-05-03 23:23 47.37621 -28.45848 36432 ft 452 kts 252°
2026-05-03 23:23 47.35551 -28.54612 36432 ft 452 kts 252°
2026-05-03 23:24 47.33474 -28.63374 36436 ft 453 kts 252°
2026-05-03 23:24 47.31390 -28.72127 36440 ft 453 kts 252°
2026-05-03 23:25 47.29297 -28.80883 36440 ft 453 kts 252°
2026-05-03 23:25 47.27198 -28.89632 36441 ft 453 kts 252°
2026-05-03 23:26 47.25090 -28.98382 36442 ft 454 kts 252°
2026-05-03 23:26 47.22975 -29.07128 36442 ft 454 kts 252°
2026-05-03 23:27 47.20849 -29.15882 36444 ft 454 kts 252°
2026-05-03 23:27 47.18718 -29.24626 36442 ft 455 kts 252°
2026-05-03 23:28 47.16592 -29.33313 36444 ft 455 kts 251°
2026-05-03 23:28 47.14446 -29.42049 36446 ft 455 kts 251°
2026-05-03 23:29 47.12291 -29.50786 36449 ft 455 kts 251°
2026-05-03 23:29 47.10125 -29.59533 36449 ft 456 kts 251°
2026-05-03 23:30 47.07953 -29.68275 36447 ft 456 kts 251°
2026-05-03 23:30 47.05773 -29.77012 36452 ft 457 kts 251°
2026-05-03 23:31 47.03584 -29.85754 36453 ft 457 kts 251°
2026-05-03 23:31 47.01387 -29.94501 36451 ft 457 kts 251°
2026-05-03 23:32 46.99421 -30.03342 36458 ft 456 kts 258°
2026-05-03 23:32 46.98066 -30.12423 36454 ft 457 kts 259°
2026-05-03 23:33 46.96721 -30.21525 36449 ft 458 kts 259°
2026-05-03 23:33 46.95347 -30.30629 36454 ft 458 kts 258°
2026-05-03 23:34 46.93952 -30.39737 36462 ft 459 kts 258°
2026-05-03 23:34 46.92544 -30.48843 36456 ft 459 kts 258°
2026-05-03 23:35 46.91127 -30.57961 36457 ft 460 kts 258°
2026-05-03 23:35 46.89701 -30.67092 36456 ft 461 kts 258°
2026-05-03 23:36 46.88266 -30.76223 36464 ft 461 kts 258°
2026-05-03 23:36 46.86824 -30.85356 36469 ft 462 kts 258°
2026-05-03 23:37 46.85371 -30.94502 36459 ft 462 kts 258°
2026-05-03 23:37 46.83911 -31.03644 36469 ft 462 kts 258°
2026-05-03 23:38 46.82453 -31.12724 36472 ft 463 kts 258°
2026-05-03 23:38 46.80974 -31.21880 36463 ft 463 kts 258°
2026-05-03 23:39 46.79488 -31.31033 36471 ft 464 kts 258°
2026-05-03 23:39 46.77992 -31.40198 36468 ft 465 kts 257°
2026-05-03 23:40 46.76486 -31.49369 36466 ft 465 kts 257°
2026-05-03 23:40 46.74973 -31.58539 36465 ft 465 kts 257°
2026-05-03 23:41 46.73451 -31.67711 36469 ft 466 kts 257°
2026-05-03 23:41 46.71919 -31.76894 36468 ft 467 kts 257°
2026-05-03 23:42 46.70378 -31.86084 36467 ft 467 kts 257°
2026-05-03 23:42 46.68829 -31.95272 36467 ft 467 kts 257°
2026-05-03 23:43 46.67272 -32.04455 36470 ft 467 kts 257°
2026-05-03 23:43 46.65706 -32.13644 36468 ft 468 kts 257°
2026-05-03 23:44 46.64133 -32.22829 36466 ft 468 kts 257°
2026-05-03 23:44 46.62551 -32.32016 36466 ft 468 kts 257°
2026-05-03 23:45 46.60962 -32.41193 36465 ft 468 kts 257°
2026-05-03 23:45 46.59388 -32.50236 36466 ft 468 kts 257°
2026-05-03 23:46 46.57784 -32.59410 36469 ft 468 kts 257°
2026-05-03 23:46 46.56172 -32.68578 36468 ft 468 kts 257°
2026-05-03 23:47 46.54554 -32.77735 36470 ft 468 kts 257°
2026-05-03 23:47 46.52938 -32.86831 36465 ft 468 kts 256°
2026-05-03 23:48 46.51306 -32.95978 36466 ft 468 kts 256°
2026-05-03 23:48 46.49666 -33.05114 36467 ft 468 kts 256°
2026-05-03 23:49 46.48020 -33.14243 36465 ft 468 kts 256°
2026-05-03 23:49 46.46368 -33.23362 36463 ft 467 kts 256°
2026-05-03 23:50 46.44989 -33.30932 36460 ft 467 kts 256°
2026-05-03 23:50 46.43045 -33.41561 36460 ft 466 kts 256°
2026-05-03 23:51 46.41374 -33.50642 36460 ft 466 kts 256°
2026-05-03 23:51 46.39697 -33.59715 36458 ft 466 kts 256°
2026-05-03 23:52 46.38016 -33.68767 36459 ft 465 kts 256°
2026-05-03 23:52 46.36328 -33.77808 36456 ft 465 kts 256°
2026-05-03 23:53 46.34635 -33.86836 36458 ft 465 kts 256°
2026-05-03 23:53 46.32937 -33.95850 36456 ft 464 kts 256°
2026-05-03 23:54 46.31243 -34.04794 36455 ft 464 kts 256°
2026-05-03 23:54 46.29531 -34.13791 36450 ft 464 kts 255°
2026-05-03 23:55 46.27813 -34.22780 36454 ft 464 kts 255°
2026-05-03 23:55 46.26087 -34.31765 36450 ft 464 kts 255°
2026-05-03 23:56 46.24357 -34.40734 36450 ft 463 kts 255°
2026-05-03 23:56 46.22619 -34.49696 36451 ft 463 kts 255°
2026-05-03 23:57 46.20874 -34.58656 36446 ft 464 kts 255°
2026-05-03 23:57 46.19122 -34.67612 36443 ft 463 kts 255°
2026-05-03 23:58 46.17363 -34.76557 36443 ft 463 kts 255°
2026-05-03 23:58 46.15599 -34.85490 36439 ft 463 kts 255°
2026-05-03 23:59 46.13829 -34.94409 36443 ft 463 kts 255°
2026-05-03 23:59 46.12353 -35.01821 36441 ft 463 kts 255°
2026-05-04 00:00 46.10571 -35.10729 36439 ft 463 kts 255°
2026-05-04 00:00 46.08782 -35.19627 36431 ft 462 kts 255°
2026-05-04 00:01 46.06988 -35.28515 36428 ft 462 kts 255°
2026-05-04 00:01 46.05188 -35.37396 36431 ft 462 kts 255°
2026-05-04 00:02 46.03380 -35.46272 36429 ft 462 kts 254°
2026-05-04 00:02 46.01567 -35.55133 36425 ft 461 kts 254°
2026-05-04 00:03 45.99748 -35.63983 36431 ft 461 kts 254°
2026-05-04 00:03 45.97923 -35.72828 36425 ft 462 kts 254°
2026-05-04 00:04 45.96101 -35.81616 36420 ft 462 kts 254°
2026-05-04 00:04 45.94260 -35.90455 36425 ft 462 kts 254°
2026-05-04 00:05 45.92414 -35.99285 36412 ft 461 kts 254°
2026-05-04 00:05 45.90562 -36.08100 36417 ft 461 kts 254°
2026-05-04 00:06 45.88704 -36.16909 36413 ft 461 kts 253°
2026-05-04 00:06 45.86838 -36.25718 36417 ft 461 kts 253°
2026-05-04 00:07 45.84966 -36.34516 36412 ft 461 kts 253°
2026-05-04 00:07 45.83087 -36.43309 36409 ft 461 kts 253°
2026-05-04 00:08 45.81204 -36.52087 36408 ft 461 kts 253°
2026-05-04 00:08 45.79313 -36.60860 36405 ft 461 kts 253°
2026-05-04 00:09 45.77414 -36.69637 36402 ft 461 kts 253°
2026-05-04 00:09 45.75509 -36.78402 36401 ft 461 kts 253°
2026-05-04 00:10 45.73597 -36.87164 36396 ft 461 kts 253°
2026-05-04 00:10 45.71681 -36.95906 36400 ft 460 kts 253°
2026-05-04 00:11 45.69758 -37.04645 36411 ft 461 kts 253°
2026-05-04 00:11 45.67840 -37.13326 36400 ft 461 kts 253°
2026-05-04 00:12 45.65902 -37.22058 36400 ft 461 kts 253°
2026-05-04 00:12 45.63957 -37.30787 36399 ft 461 kts 253°
2026-05-04 00:13 45.62007 -37.39504 36392 ft 461 kts 253°
2026-05-04 00:13 45.60051 -37.48214 36393 ft 461 kts 253°
2026-05-04 00:14 45.58088 -37.56918 36390 ft 461 kts 253°
2026-05-04 00:14 45.56116 -37.65625 36390 ft 461 kts 253°
2026-05-04 00:15 45.54137 -37.74326 36397 ft 461 kts 253°
2026-05-04 00:15 45.52152 -37.83020 36387 ft 461 kts 254°
2026-05-04 00:16 45.50161 -37.91705 36384 ft 461 kts 254°
2026-05-04 00:16 45.48163 -38.00386 36390 ft 461 kts 254°
2026-05-04 00:17 45.46160 -38.09055 36383 ft 461 kts 255°
2026-05-04 00:17 45.44149 -38.17722 36379 ft 461 kts 255°
2026-05-04 00:18 45.42133 -38.26378 36372 ft 461 kts 255°
2026-05-04 00:18 45.40111 -38.35027 36371 ft 461 kts 255°
2026-05-04 00:19 45.38096 -38.43608 36378 ft 460 kts 256°
2026-05-04 00:19 45.36066 -38.52222 36374 ft 459 kts 256°
2026-05-04 00:20 45.34030 -38.60830 36366 ft 460 kts 256°
2026-05-04 00:20 45.31987 -38.69433 36365 ft 459 kts 256°
2026-05-04 00:21 45.29937 -38.78028 36361 ft 459 kts 256°
2026-05-04 00:21 45.27884 -38.86603 36358 ft 458 kts 257°
2026-05-04 00:22 45.25827 -38.95166 36361 ft 458 kts 257°
2026-05-04 00:22 45.23766 -39.03712 36358 ft 458 kts 257°
2026-05-04 00:23 45.21699 -39.12250 36355 ft 457 kts 257°
2026-05-04 00:23 45.19627 -39.20775 36350 ft 457 kts 257°
2026-05-04 00:24 45.17565 -39.29227 36349 ft 456 kts 257°
2026-05-04 00:24 45.15487 -39.37714 36347 ft 456 kts 257°
2026-05-04 00:25 45.13402 -39.46195 36343 ft 456 kts 257°
2026-05-04 00:25 45.11315 -39.54659 36342 ft 455 kts 257°
2026-05-04 00:26 45.09221 -39.63112 36339 ft 455 kts 257°
2026-05-04 00:26 45.07124 -39.71553 36341 ft 454 kts 257°
2026-05-04 00:27 45.05025 -39.79967 36328 ft 453 kts 258°
2026-05-04 00:27 45.02925 -39.88363 36333 ft 453 kts 258°
2026-05-04 00:28 45.00817 -39.96736 36329 ft 452 kts 257°
2026-05-04 00:28 44.98065 -40.04827 36324 ft 462 kts 247°
2026-05-04 00:29 44.94745 -40.12609 36323 ft 463 kts 247°
2026-05-04 00:29 44.91423 -40.20378 36319 ft 462 kts 247°
2026-05-04 00:30 44.88119 -40.28145 36318 ft 461 kts 248°
2026-05-04 00:30 44.84822 -40.35911 36317 ft 462 kts 248°
2026-05-04 00:31 44.81545 -40.43615 36317 ft 461 kts 248°
2026-05-04 00:31 44.78241 -40.51364 36311 ft 462 kts 248°
2026-05-04 00:32 44.74932 -40.59097 36308 ft 461 kts 248°
2026-05-04 00:32 44.71621 -40.66815 36310 ft 461 kts 248°
2026-05-04 00:33 44.66650 -40.78366 36303 ft 460 kts 248°
2026-05-04 00:34 44.63329 -40.86055 36303 ft 461 kts 248°
2026-05-04 00:34 44.60002 -40.93737 36300 ft 461 kts 248°
2026-05-04 00:35 44.56670 -41.01411 36298 ft 461 kts 249°
2026-05-04 00:35 44.53333 -41.09075 36291 ft 460 kts 249°
2026-05-04 00:36 44.49992 -41.16729 36286 ft 460 kts 249°
2026-05-04 00:36 44.46644 -41.24378 36294 ft 460 kts 249°
2026-05-04 00:37 44.43299 -41.31997 36294 ft 460 kts 249°
2026-05-04 00:37 44.39948 -41.39613 36282 ft 460 kts 249°
2026-05-04 00:38 44.36592 -41.47222 36282 ft 460 kts 249°
2026-05-04 00:38 44.33221 -41.54843 36282 ft 461 kts 249°
2026-05-04 00:39 44.29844 -41.62455 36273 ft 461 kts 249°
2026-05-04 00:39 44.26466 -41.70047 36272 ft 460 kts 249°
2026-05-04 00:40 44.23109 -41.77574 36272 ft 460 kts 248°
2026-05-04 00:40 44.19730 -41.85132 36269 ft 459 kts 248°
2026-05-04 00:41 44.16346 -41.92682 36264 ft 459 kts 248°
2026-05-04 00:41 44.12960 -42.00216 36261 ft 458 kts 248°
2026-05-04 00:42 44.09575 -42.07727 36258 ft 458 kts 248°
2026-05-04 00:42 44.06189 -42.15221 36257 ft 457 kts 248°
2026-05-04 00:43 44.02804 -42.22695 36252 ft 457 kts 248°
2026-05-04 00:43 43.99414 -42.30162 36248 ft 457 kts 247°
2026-05-04 00:44 43.96020 -42.37618 36255 ft 457 kts 247°
2026-05-04 00:44 43.92617 -42.45071 36249 ft 457 kts 247°
2026-05-04 00:45 43.89216 -42.52502 36240 ft 456 kts 247°
2026-05-04 00:45 43.85813 -42.59920 36242 ft 456 kts 247°
2026-05-04 00:46 43.82405 -42.67329 36236 ft 456 kts 246°
2026-05-04 00:46 43.78991 -42.74733 36241 ft 456 kts 246°
2026-05-04 00:47 43.75573 -42.82125 36234 ft 456 kts 246°
2026-05-04 00:47 43.72154 -42.89503 36234 ft 456 kts 246°
2026-05-04 00:48 43.68729 -42.96873 36238 ft 456 kts 246°
2026-05-04 00:48 43.65302 -43.04230 36231 ft 455 kts 246°
2026-05-04 00:49 43.61874 -43.11567 36223 ft 454 kts 245°
2026-05-04 00:49 43.58448 -43.18886 36227 ft 454 kts 245°
2026-05-04 00:50 43.55037 -43.26156 36218 ft 454 kts 245°
2026-05-04 00:50 43.51606 -43.33445 36213 ft 453 kts 245°
2026-05-04 00:51 43.48179 -43.40709 36219 ft 452 kts 245°
2026-05-04 00:51 43.44752 -43.47959 36210 ft 451 kts 245°
2026-05-04 00:52 43.41326 -43.55186 36210 ft 451 kts 245°
2026-05-04 00:52 43.38453 -43.61233 36208 ft 450 kts 245°
2026-05-04 00:53 43.35027 -43.68427 36209 ft 449 kts 245°
2026-05-04 00:53 43.31626 -43.75552 36203 ft 449 kts 245°
2026-05-04 00:54 43.28200 -43.82714 36203 ft 449 kts 245°
2026-05-04 00:54 43.24771 -43.89863 36193 ft 449 kts 244°
2026-05-04 00:55 43.21331 -43.97018 36198 ft 449 kts 244°
2026-05-04 00:55 43.17886 -44.04167 36194 ft 449 kts 244°
2026-05-04 00:56 43.14436 -44.11306 36192 ft 449 kts 244°
2026-05-04 00:56 43.10979 -44.18445 36188 ft 450 kts 244°
2026-05-04 00:57 43.07517 -44.25575 36187 ft 450 kts 244°
2026-05-04 00:57 43.04045 -44.32709 36188 ft 451 kts 244°
2026-05-04 00:58 43.00569 -44.39835 36185 ft 450 kts 244°
2026-05-04 00:58 42.97089 -44.46950 36181 ft 450 kts 244°
2026-05-04 00:59 42.93610 -44.54049 36179 ft 450 kts 244°
2026-05-04 00:59 42.90126 -44.61139 36181 ft 449 kts 244°
2026-05-04 01:00 42.86642 -44.68212 36183 ft 449 kts 244°
2026-05-04 01:00 42.83178 -44.75229 36164 ft 449 kts 244°
2026-05-04 01:01 42.79667 -44.82324 36167 ft 449 kts 244°
2026-05-04 01:01 42.76179 -44.89353 36172 ft 447 kts 244°
2026-05-04 01:02 42.72719 -44.96312 36171 ft 446 kts 244°
2026-05-04 01:02 42.69214 -45.03348 36170 ft 446 kts 244°
2026-05-04 01:03 42.65751 -45.10279 36159 ft 446 kts 243°
2026-05-04 01:03 42.62239 -45.17295 36162 ft 446 kts 243°
2026-05-04 01:04 42.58771 -45.24204 36163 ft 445 kts 243°
2026-05-04 01:04 42.55284 -45.31135 36166 ft 445 kts 243°
2026-05-04 01:05 42.51796 -45.38054 36154 ft 444 kts 243°
2026-05-04 01:05 42.48305 -45.44963 36158 ft 444 kts 243°
2026-05-04 01:06 42.44813 -45.51857 36154 ft 444 kts 243°
2026-05-04 01:06 42.41315 -45.58749 36152 ft 445 kts 243°
2026-05-04 01:07 42.37808 -45.65640 36147 ft 445 kts 242°
2026-05-04 01:07 42.34298 -45.72522 36152 ft 445 kts 242°
2026-05-04 01:08 42.30782 -45.79400 36144 ft 445 kts 242°
2026-05-04 01:08 42.27260 -45.86274 36145 ft 446 kts 242°
2026-05-04 01:09 42.23724 -45.93160 36145 ft 446 kts 242°
2026-05-04 01:09 42.20183 -46.00039 36142 ft 446 kts 242°
2026-05-04 01:10 42.16661 -46.06864 36144 ft 446 kts 242°
2026-05-04 01:10 42.13109 -46.13735 36143 ft 447 kts 242°
2026-05-04 01:11 42.09548 -46.20607 36135 ft 447 kts 242°
2026-05-04 01:11 42.05983 -46.27471 36135 ft 447 kts 242°
2026-05-04 01:12 42.02411 -46.34331 36134 ft 448 kts 242°
2026-05-04 01:12 41.98834 -46.41187 36133 ft 448 kts 242°
2026-05-04 01:13 41.95250 -46.48041 36133 ft 449 kts 241°
2026-05-04 01:13 41.91654 -46.54902 36122 ft 450 kts 241°
2026-05-04 01:14 41.88052 -46.61759 36119 ft 449 kts 241°
2026-05-04 01:14 41.84446 -46.68606 36131 ft 449 kts 241°
2026-05-04 01:15 41.80837 -46.75445 36131 ft 449 kts 241°
2026-05-04 01:15 41.77218 -46.82289 36124 ft 450 kts 241°
2026-05-04 01:16 41.73596 -46.89122 36119 ft 450 kts 241°
2026-05-04 01:16 41.69995 -46.95897 36119 ft 449 kts 241°
2026-05-04 01:17 41.66372 -47.02702 36115 ft 449 kts 241°
2026-05-04 01:17 41.62745 -47.09498 36113 ft 448 kts 240°
2026-05-04 01:18 41.59122 -47.16272 36110 ft 448 kts 240°
2026-05-04 01:18 41.55503 -47.23023 36113 ft 447 kts 240°
2026-05-04 01:19 41.51888 -47.29752 36108 ft 445 kts 240°
2026-05-04 01:19 41.48274 -47.36465 36106 ft 445 kts 240°
2026-05-04 01:20 41.44660 -47.43164 36104 ft 445 kts 240°
2026-05-04 01:20 41.41039 -47.49861 36102 ft 445 kts 240°
2026-05-04 01:21 41.37418 -47.56543 36096 ft 445 kts 240°
2026-05-04 01:21 41.33792 -47.63218 36099 ft 445 kts 240°
2026-05-04 01:22 41.30165 -47.69881 36091 ft 444 kts 239°
2026-05-04 01:22 41.26541 -47.76525 36092 ft 444 kts 239°
2026-05-04 01:23 41.22908 -47.83172 36092 ft 445 kts 239°
2026-05-04 01:23 41.19270 -47.89812 36092 ft 444 kts 239°
2026-05-04 01:24 41.15657 -47.96393 36090 ft 444 kts 239°
2026-05-04 01:24 41.12017 -48.03008 36082 ft 444 kts 239°
2026-05-04 01:25 41.08370 -48.09623 36088 ft 444 kts 239°
2026-05-04 01:25 41.04720 -48.16228 36082 ft 444 kts 239°
2026-05-04 01:26 41.01069 -48.22821 36077 ft 444 kts 239°
2026-05-04 01:26 40.97417 -48.29402 36078 ft 443 kts 238°
2026-05-04 01:27 40.93759 -48.35979 36078 ft 444 kts 238°
2026-05-04 01:27 40.90098 -48.42550 36071 ft 444 kts 238°
2026-05-04 01:28 40.86433 -48.49111 36073 ft 443 kts 238°
2026-05-04 01:28 40.82767 -48.55661 36068 ft 443 kts 238°
2026-05-04 01:29 40.79097 -48.62205 36070 ft 444 kts 238°
2026-05-04 01:29 40.75422 -48.68745 36066 ft 444 kts 238°
2026-05-04 01:30 40.71742 -48.75278 36062 ft 443 kts 238°
2026-05-04 01:30 40.68067 -48.81787 36061 ft 442 kts 238°
2026-05-04 01:31 40.64390 -48.88290 36064 ft 443 kts 237°
2026-05-04 01:31 40.60704 -48.94794 36064 ft 444 kts 237°
2026-05-04 01:32 40.57033 -49.01256 36057 ft 443 kts 237°
2026-05-04 01:32 40.53339 -49.07746 36057 ft 443 kts 237°
2026-05-04 01:33 40.49643 -49.14226 36054 ft 443 kts 237°
2026-05-04 01:33 40.45922 -49.20737 36055 ft 443 kts 237°
2026-05-04 01:34 40.42238 -49.27170 36055 ft 443 kts 237°
2026-05-04 01:34 40.38532 -49.33627 36053 ft 443 kts 237°
2026-05-04 01:35 40.34826 -49.40072 36050 ft 443 kts 237°
2026-05-04 01:35 40.31116 -49.46509 36045 ft 442 kts 237°
2026-05-04 01:36 40.27408 -49.52931 36050 ft 442 kts 237°
2026-05-04 01:36 40.23698 -49.59342 36044 ft 441 kts 237°
2026-05-04 01:37 40.19993 -49.65731 36044 ft 440 kts 237°
2026-05-04 01:37 40.16290 -49.72107 36045 ft 440 kts 237°
2026-05-04 01:38 40.12582 -49.78476 36046 ft 440 kts 236°
2026-05-04 01:38 40.08871 -49.84840 36046 ft 440 kts 236°
2026-05-04 01:39 40.05158 -49.91194 36038 ft 440 kts 236°
2026-05-04 01:39 40.01402 -49.97488 36035 ft 441 kts 232°
2026-05-04 01:40 39.96991 -50.03099 36027 ft 447 kts 223°
2026-05-04 01:40 39.92058 -50.08033 36034 ft 447 kts 222°
2026-05-04 01:41 39.87113 -50.12925 36041 ft 446 kts 222°
2026-05-04 01:41 39.83010 -50.16997 36031 ft 446 kts 222°
2026-05-04 01:42 39.78083 -50.21900 36033 ft 446 kts 222°
2026-05-04 01:42 39.73163 -50.26795 36044 ft 445 kts 222°
2026-05-04 01:43 39.68250 -50.31677 36044 ft 444 kts 222°
2026-05-04 01:43 39.63338 -50.36548 36035 ft 444 kts 222°
2026-05-04 01:44 39.58427 -50.41408 36035 ft 444 kts 222°
2026-05-04 01:44 39.53519 -50.46257 36033 ft 444 kts 222°
2026-05-04 01:45 39.48608 -50.51100 36035 ft 444 kts 222°
2026-05-04 01:45 39.41241 -50.58347 36035 ft 443 kts 222°
2026-05-04 01:46 39.36362 -50.63136 36036 ft 443 kts 222°
2026-05-04 01:46 39.31448 -50.67952 36034 ft 443 kts 222°
2026-05-04 01:47 39.26533 -50.72758 36035 ft 443 kts 222°
2026-05-04 01:47 39.21623 -50.77551 36035 ft 443 kts 222°
2026-05-04 01:48 39.16707 -50.82342 36036 ft 443 kts 222°
2026-05-04 01:48 39.11788 -50.87128 36037 ft 443 kts 222°
2026-05-04 01:49 39.06868 -50.91905 36033 ft 443 kts 222°
2026-05-04 01:49 39.01953 -50.96668 36034 ft 442 kts 222°
2026-05-04 01:50 38.97035 -51.01426 36035 ft 442 kts 222°
2026-05-04 01:50 38.92122 -51.06172 36037 ft 442 kts 222°
2026-05-04 01:51 38.87204 -51.10913 36036 ft 442 kts 222°
2026-05-04 01:51 38.82291 -51.15642 36037 ft 441 kts 222°
2026-05-04 01:52 38.77378 -51.20362 36035 ft 441 kts 222°
2026-05-04 01:52 38.72501 -51.25038 36039 ft 441 kts 222°
2026-05-04 01:53 38.67594 -51.29736 36038 ft 441 kts 222°
2026-05-04 01:53 38.62686 -51.34428 36040 ft 440 kts 222°
2026-05-04 01:54 38.57776 -51.39112 36043 ft 440 kts 222°
2026-05-04 01:54 38.52866 -51.43788 36044 ft 441 kts 222°
2026-05-04 01:55 38.47946 -51.48466 36042 ft 441 kts 222°
2026-05-04 01:55 38.43028 -51.53133 36042 ft 440 kts 222°
2026-05-04 01:56 38.38114 -51.57788 36039 ft 440 kts 222°
2026-05-04 01:56 38.33205 -51.62431 36037 ft 440 kts 222°
2026-05-04 01:57 38.28290 -51.67072 36044 ft 440 kts 222°
2026-05-04 01:57 38.23368 -51.71710 36043 ft 440 kts 222°
2026-05-04 01:58 38.18449 -51.76339 36043 ft 440 kts 222°
2026-05-04 01:58 38.13521 -51.80967 36044 ft 440 kts 222°
2026-05-04 01:59 38.08592 -51.85589 36044 ft 440 kts 222°
2026-05-04 01:59 38.03699 -51.90168 36042 ft 440 kts 222°
2026-05-04 02:00 37.98769 -51.94775 36046 ft 440 kts 222°
2026-05-04 02:00 37.93842 -51.99371 36044 ft 440 kts 222°
2026-05-04 02:01 37.88917 -52.03958 36044 ft 439 kts 222°
2026-05-04 02:01 37.83997 -52.08532 36046 ft 439 kts 222°
2026-05-04 02:02 37.79076 -52.13099 36048 ft 438 kts 222°
2026-05-04 02:02 37.74160 -52.17654 36047 ft 438 kts 222°
2026-05-04 02:03 37.69240 -52.22205 36047 ft 438 kts 221°
2026-05-04 02:03 37.64319 -52.26749 36046 ft 438 kts 221°
2026-05-04 02:04 37.59395 -52.31289 36049 ft 438 kts 222°
2026-05-04 02:04 37.54472 -52.35819 36043 ft 438 kts 222°
2026-05-04 02:05 37.49550 -52.40341 36037 ft 438 kts 222°
2026-05-04 02:05 37.44626 -52.44859 36043 ft 438 kts 222°
2026-05-04 02:06 37.39695 -52.49374 36057 ft 438 kts 222°
2026-05-04 02:06 37.34768 -52.53878 36053 ft 438 kts 222°
2026-05-04 02:07 37.29835 -52.58381 36046 ft 438 kts 222°
2026-05-04 02:07 37.24902 -52.62875 36053 ft 438 kts 222°
2026-05-04 02:08 37.19970 -52.67362 36056 ft 438 kts 222°
2026-05-04 02:08 37.15038 -52.71841 36056 ft 437 kts 222°
2026-05-04 02:09 37.10109 -52.76310 36054 ft 437 kts 222°
2026-05-04 02:09 37.05183 -52.80768 36056 ft 437 kts 222°
2026-05-04 02:10 37.00260 -52.85217 36053 ft 436 kts 222°
2026-05-04 02:10 36.95339 -52.89658 36056 ft 436 kts 222°
2026-05-04 02:11 36.90414 -52.94095 36057 ft 436 kts 222°
2026-05-04 02:11 36.85519 -52.98497 36056 ft 436 kts 222°
2026-05-04 02:12 36.80588 -53.02924 36059 ft 437 kts 222°
2026-05-04 02:12 36.75656 -53.07345 36060 ft 437 kts 222°
2026-05-04 02:13 36.70721 -53.11762 36058 ft 437 kts 222°
2026-05-04 02:13 36.65785 -53.16171 36056 ft 436 kts 222°
2026-05-04 02:14 36.60860 -53.20565 36060 ft 435 kts 222°
2026-05-04 02:14 36.55932 -53.24954 36061 ft 436 kts 222°
2026-05-04 02:15 36.51003 -53.29338 36062 ft 436 kts 222°
2026-05-04 02:15 36.46070 -53.33718 36061 ft 436 kts 222°
2026-05-04 02:16 36.41141 -53.38086 36060 ft 435 kts 222°
2026-05-04 02:16 36.36217 -53.42444 36060 ft 435 kts 222°
2026-05-04 02:17 36.31290 -53.46798 36062 ft 435 kts 222°
2026-05-04 02:17 36.26352 -53.51155 36061 ft 436 kts 222°
2026-05-04 02:18 36.21411 -53.55506 36064 ft 436 kts 222°
2026-05-04 02:18 36.16468 -53.59853 36065 ft 436 kts 222°
2026-05-04 02:19 36.11518 -53.64200 36066 ft 436 kts 222°
2026-05-04 02:19 36.06567 -53.68539 36066 ft 436 kts 222°
2026-05-04 02:20 36.01614 -53.72874 36067 ft 436 kts 222°
2026-05-04 02:20 35.96657 -53.77206 36066 ft 436 kts 222°
2026-05-04 02:21 35.91700 -53.81531 36067 ft 437 kts 221°
2026-05-04 02:21 35.86731 -53.85860 36072 ft 437 kts 221°
2026-05-04 02:22 35.81766 -53.90178 36068 ft 437 kts 221°
2026-05-04 02:22 35.76793 -53.94497 36073 ft 437 kts 221°
2026-05-04 02:23 35.71820 -53.98808 36069 ft 437 kts 221°
2026-05-04 02:23 35.66845 -54.03115 36069 ft 437 kts 221°
2026-05-04 02:24 35.61867 -54.07418 36075 ft 438 kts 221°
2026-05-04 02:24 35.56913 -54.11694 36071 ft 438 kts 221°
2026-05-04 02:25 35.51924 -54.15992 36072 ft 438 kts 221°
2026-05-04 02:25 35.46935 -54.20285 36075 ft 438 kts 221°
2026-05-04 02:26 35.41938 -54.24578 36076 ft 439 kts 221°
2026-05-04 02:26 35.36935 -54.28869 36076 ft 439 kts 221°
2026-05-04 02:27 35.31926 -54.33159 36084 ft 439 kts 221°
2026-05-04 02:27 35.26912 -54.37446 36081 ft 440 kts 221°
2026-05-04 02:28 35.21897 -54.41727 36078 ft 439 kts 221°
2026-05-04 02:28 35.16883 -54.46000 36082 ft 439 kts 221°
2026-05-04 02:29 35.11866 -54.50271 36079 ft 440 kts 221°
2026-05-04 02:29 35.06843 -54.54540 36079 ft 440 kts 221°
2026-05-04 02:30 35.02671 -54.58081 36084 ft 440 kts 221°
2026-05-04 02:30 34.97646 -54.62339 36081 ft 440 kts 221°
2026-05-04 02:31 34.92616 -54.66596 36087 ft 440 kts 221°
2026-05-04 02:31 34.87584 -54.70846 36082 ft 440 kts 221°
2026-05-04 02:32 34.82550 -54.75093 36086 ft 440 kts 221°
2026-05-04 02:32 34.77515 -54.79334 36086 ft 440 kts 221°
2026-05-04 02:33 34.72482 -54.83567 36086 ft 441 kts 221°
2026-05-04 02:33 34.67433 -54.87808 36087 ft 441 kts 221°
2026-05-04 02:34 34.62377 -54.92048 36088 ft 442 kts 221°
2026-05-04 02:34 34.57317 -54.96284 36084 ft 442 kts 221°
2026-05-04 02:35 34.52253 -55.00517 36088 ft 442 kts 221°
2026-05-04 02:35 34.47189 -55.04744 36091 ft 442 kts 221°
2026-05-04 02:36 34.42153 -55.08941 36092 ft 442 kts 221°
2026-05-04 02:36 34.37083 -55.13160 36091 ft 442 kts 221°
2026-05-04 02:37 34.31978 -55.17403 36085 ft 442 kts 221°
2026-05-04 02:37 34.26932 -55.21590 36096 ft 443 kts 221°
2026-05-04 02:38 34.21850 -55.25801 36093 ft 443 kts 221°
2026-05-04 02:38 34.16764 -55.30008 36093 ft 443 kts 221°
2026-05-04 02:39 34.11674 -55.34213 36096 ft 443 kts 221°
2026-05-04 02:39 34.06577 -55.38417 36091 ft 443 kts 221°
2026-05-04 02:40 34.01482 -55.42613 36094 ft 444 kts 221°
2026-05-04 02:40 33.96379 -55.46810 36097 ft 445 kts 221°
2026-05-04 02:41 33.91267 -55.51008 36099 ft 445 kts 221°
2026-05-04 02:41 33.86155 -55.55199 36102 ft 444 kts 221°
2026-05-04 02:42 33.81040 -55.59387 36103 ft 445 kts 221°
2026-05-04 02:42 33.75918 -55.63575 36107 ft 446 kts 221°
2026-05-04 02:43 33.70786 -55.67764 36099 ft 446 kts 221°
2026-05-04 02:43 33.65651 -55.71949 36099 ft 446 kts 221°
2026-05-04 02:44 33.60512 -55.76133 36102 ft 447 kts 221°
2026-05-04 02:44 33.55368 -55.80314 36104 ft 447 kts 221°
2026-05-04 02:45 33.50210 -55.84499 36102 ft 448 kts 221°
2026-05-04 02:45 33.45088 -55.88650 36110 ft 448 kts 221°
2026-05-04 02:46 33.39916 -55.92835 36105 ft 449 kts 221°
2026-05-04 02:46 33.34734 -55.97023 36104 ft 450 kts 221°
2026-05-04 02:47 33.29504 -56.01242 36109 ft 451 kts 221°
2026-05-04 02:47 33.24338 -56.05403 36107 ft 451 kts 220°
2026-05-04 02:48 33.19137 -56.09587 36110 ft 451 kts 220°
2026-05-04 02:48 33.13918 -56.13780 36112 ft 452 kts 220°
2026-05-04 02:49 33.08695 -56.17970 36109 ft 452 kts 220°
2026-05-04 02:49 33.03472 -56.22152 36111 ft 453 kts 220°
2026-05-04 02:50 32.98239 -56.26338 36112 ft 453 kts 220°
2026-05-04 02:50 32.92999 -56.30523 36116 ft 454 kts 220°
2026-05-04 02:51 32.87757 -56.34704 36115 ft 454 kts 220°
2026-05-04 02:51 32.82503 -56.38888 36115 ft 455 kts 220°
2026-05-04 02:52 32.77246 -56.43068 36112 ft 454 kts 219°
2026-05-04 02:52 32.71992 -56.47240 36113 ft 454 kts 219°
2026-05-04 02:53 32.66770 -56.51380 36117 ft 454 kts 219°
2026-05-04 02:53 32.61511 -56.55544 36118 ft 455 kts 219°
2026-05-04 02:54 32.56248 -56.59705 36118 ft 455 kts 219°
2026-05-04 02:54 32.50979 -56.63865 36115 ft 455 kts 220°
2026-05-04 02:55 32.43072 -56.70096 36119 ft 455 kts 220°
2026-05-04 02:56 32.37802 -56.74241 36119 ft 455 kts 220°
2026-05-04 02:56 32.32532 -56.78381 36121 ft 454 kts 220°
2026-05-04 02:57 32.27265 -56.82512 36119 ft 454 kts 220°
2026-05-04 02:57 32.22002 -56.86635 36122 ft 454 kts 220°
2026-05-04 02:58 32.16736 -56.90755 36124 ft 454 kts 220°
2026-05-04 02:58 32.11468 -56.94870 36125 ft 455 kts 220°
2026-05-04 02:59 32.06192 -56.98986 36124 ft 454 kts 219°
2026-05-04 02:59 32.00922 -57.03090 36132 ft 454 kts 219°
2026-05-04 03:00 31.95654 -57.07187 36127 ft 453 kts 219°
2026-05-04 03:00 31.90390 -57.11277 36129 ft 453 kts 219°
2026-05-04 03:01 31.85121 -57.15364 36128 ft 454 kts 219°
2026-05-04 03:01 31.79845 -57.19451 36129 ft 454 kts 219°
2026-05-04 03:02 31.74568 -57.23532 36136 ft 454 kts 219°
2026-05-04 03:02 31.69287 -57.27613 36128 ft 455 kts 219°
2026-05-04 03:03 31.63996 -57.31693 36136 ft 455 kts 219°
2026-05-04 03:03 31.58706 -57.35768 36133 ft 455 kts 219°
2026-05-04 03:04 31.53411 -57.39841 36132 ft 455 kts 219°
2026-05-04 03:04 31.48118 -57.43907 36135 ft 455 kts 219°
2026-05-04 03:05 31.42822 -57.47970 36136 ft 455 kts 218°
2026-05-04 03:05 31.37559 -57.52002 36135 ft 455 kts 218°
2026-05-04 03:06 31.32216 -57.56090 36139 ft 456 kts 218°
2026-05-04 03:06 31.26939 -57.60122 36137 ft 456 kts 218°
2026-05-04 03:07 31.21622 -57.64178 36148 ft 456 kts 218°
2026-05-04 03:07 31.16301 -57.68232 36136 ft 457 kts 218°
2026-05-04 03:08 31.10970 -57.72289 36131 ft 458 kts 218°
2026-05-04 03:08 31.05636 -57.76341 36140 ft 457 kts 218°
2026-05-04 03:09 31.00307 -57.80385 36150 ft 457 kts 218°
2026-05-04 03:09 30.94967 -57.84432 36141 ft 458 kts 218°
2026-05-04 03:10 30.89620 -57.88478 36144 ft 459 kts 218°
2026-05-04 03:10 30.84264 -57.92526 36143 ft 459 kts 218°
2026-05-04 03:11 30.78908 -57.96568 36140 ft 459 kts 218°
2026-05-04 03:11 30.73553 -58.00603 36147 ft 459 kts 218°
2026-05-04 03:12 30.68191 -58.04639 36149 ft 460 kts 218°
2026-05-04 03:12 30.62822 -58.08676 36141 ft 460 kts 218°
2026-05-04 03:13 30.57448 -58.12709 36143 ft 460 kts 218°
2026-05-04 03:13 30.52065 -58.16745 36147 ft 460 kts 218°
2026-05-04 03:14 30.46686 -58.20772 36151 ft 461 kts 218°
2026-05-04 03:14 30.41299 -58.24799 36148 ft 461 kts 218°
2026-05-04 03:15 30.35913 -58.28820 36152 ft 460 kts 218°
2026-05-04 03:15 30.30525 -58.32839 36152 ft 461 kts 218°
2026-05-04 03:16 30.25130 -58.36857 36149 ft 462 kts 218°
2026-05-04 03:16 30.19728 -58.40874 36151 ft 462 kts 218°
2026-05-04 03:17 30.14320 -58.44890 36155 ft 462 kts 218°
2026-05-04 03:17 30.08907 -58.48905 36156 ft 462 kts 217°
2026-05-04 03:18 30.03491 -58.52917 36155 ft 463 kts 217°
2026-05-04 03:18 29.98990 -58.56247 36156 ft 463 kts 217°
2026-05-04 03:19 29.92687 -58.60904 36155 ft 463 kts 217°
2026-05-04 03:19 29.87265 -58.64905 36156 ft 463 kts 217°
2026-05-04 03:20 29.82723 -58.68252 36154 ft 463 kts 217°
2026-05-04 03:20 29.77294 -58.72248 36157 ft 463 kts 217°
2026-05-04 03:21 29.71861 -58.76242 36153 ft 464 kts 217°
2026-05-04 03:21 29.66412 -58.80243 36155 ft 464 kts 217°
2026-05-04 03:22 29.61002 -58.84209 36161 ft 464 kts 217°
2026-05-04 03:22 29.55556 -58.88197 36159 ft 464 kts 217°
2026-05-04 03:23 29.50104 -58.92183 36151 ft 464 kts 217°
2026-05-04 03:23 29.44651 -58.96166 36151 ft 464 kts 217°
2026-05-04 03:24 29.39201 -59.00141 36162 ft 465 kts 217°
2026-05-04 03:24 29.33743 -59.04117 36164 ft 465 kts 217°
2026-05-04 03:25 29.28279 -59.08093 36160 ft 466 kts 217°
2026-05-04 03:25 29.22806 -59.12069 36158 ft 466 kts 217°
2026-05-04 03:26 29.17335 -59.16039 36164 ft 466 kts 217°
2026-05-04 03:26 29.11861 -59.20007 36162 ft 466 kts 217°
2026-05-04 03:27 29.06381 -59.23973 36164 ft 466 kts 217°
2026-05-04 03:27 29.00897 -59.27938 36163 ft 466 kts 217°
2026-05-04 03:28 28.95419 -59.31892 36165 ft 466 kts 217°
2026-05-04 03:28 28.89939 -59.35844 36165 ft 466 kts 217°
2026-05-04 03:29 28.84448 -59.39798 36165 ft 467 kts 217°
2026-05-04 03:29 28.78944 -59.43758 36166 ft 468 kts 217°
2026-05-04 03:30 28.73435 -59.47714 36168 ft 468 kts 217°
2026-05-04 03:30 28.67928 -59.51665 36169 ft 468 kts 217°
2026-05-04 03:31 28.62418 -59.55613 36167 ft 468 kts 216°
2026-05-04 03:31 28.56908 -59.59556 36170 ft 468 kts 216°
2026-05-04 03:32 28.51394 -59.63497 36169 ft 468 kts 216°
2026-05-04 03:32 28.45880 -59.67433 36172 ft 468 kts 216°
2026-05-04 03:33 28.40356 -59.71372 36165 ft 469 kts 216°
2026-05-04 03:33 28.34830 -59.75306 36164 ft 469 kts 216°
2026-05-04 03:34 28.29303 -59.79236 36172 ft 469 kts 216°
2026-05-04 03:34 28.23774 -59.83165 36170 ft 469 kts 216°
2026-05-04 03:35 28.18277 -59.87064 36171 ft 469 kts 216°
2026-05-04 03:35 28.12740 -59.90988 36170 ft 470 kts 216°
2026-05-04 03:36 28.07161 -59.94937 36172 ft 470 kts 216°
2026-05-04 03:36 28.01658 -59.98827 36169 ft 470 kts 216°
2026-05-04 03:37 27.96075 -60.02682 36172 ft 471 kts 214°
2026-05-04 03:37 27.90411 -60.06418 36170 ft 472 kts 214°
2026-05-04 03:38 27.84739 -60.10142 36171 ft 471 kts 214°
2026-05-04 03:38 27.79075 -60.13879 36171 ft 471 kts 214°
2026-05-04 03:39 27.73414 -60.17623 36170 ft 472 kts 214°
2026-05-04 03:39 27.67753 -60.21366 36170 ft 472 kts 214°
2026-05-04 03:40 27.62082 -60.25111 36169 ft 472 kts 214°
2026-05-04 03:40 27.56406 -60.28853 36169 ft 473 kts 214°
2026-05-04 03:41 27.50722 -60.32596 36169 ft 473 kts 214°
2026-05-04 03:41 27.45043 -60.36332 36170 ft 473 kts 214°
2026-05-04 03:42 27.39356 -60.40067 36173 ft 473 kts 214°
2026-05-04 03:42 27.33669 -60.43799 36171 ft 473 kts 214°
2026-05-04 03:43 27.27981 -60.47527 36171 ft 473 kts 214°
2026-05-04 03:43 27.22293 -60.51250 36174 ft 473 kts 214°
2026-05-04 03:44 27.16601 -60.54971 36173 ft 473 kts 214°
2026-05-04 03:44 27.10906 -60.58690 36172 ft 474 kts 214°
2026-05-04 03:45 27.05205 -60.62409 36172 ft 474 kts 214°
2026-05-04 03:45 26.99536 -60.66102 36172 ft 474 kts 214°
2026-05-04 03:46 26.93830 -60.69815 36173 ft 474 kts 214°
2026-05-04 03:46 26.88125 -60.73522 36171 ft 474 kts 214°
2026-05-04 03:47 26.82414 -60.77230 36172 ft 475 kts 214°
2026-05-04 03:47 26.76696 -60.80938 36169 ft 475 kts 213°
2026-05-04 03:48 26.70974 -60.84643 36171 ft 475 kts 213°
2026-05-04 03:48 26.65251 -60.88345 36170 ft 475 kts 213°
2026-05-04 03:49 26.59527 -60.92044 36172 ft 475 kts 213°
2026-05-04 03:49 26.53799 -60.95741 36170 ft 476 kts 213°
2026-05-04 03:50 26.48070 -60.99433 36172 ft 476 kts 213°
2026-05-04 03:50 26.42335 -61.03126 36169 ft 476 kts 213°
2026-05-04 03:51 26.36598 -61.06816 36171 ft 476 kts 213°
2026-05-04 03:51 26.30861 -61.10501 36170 ft 476 kts 213°
2026-05-04 03:52 26.25123 -61.14183 36172 ft 476 kts 213°
2026-05-04 03:52 26.19382 -61.17863 36172 ft 476 kts 213°
2026-05-04 03:53 26.13673 -61.21517 36171 ft 477 kts 213°
2026-05-04 03:53 26.07921 -61.25196 36171 ft 477 kts 213°
2026-05-04 03:54 26.02168 -61.28870 36173 ft 477 kts 213°
2026-05-04 03:54 25.96413 -61.32541 36171 ft 477 kts 213°
2026-05-04 03:55 25.90653 -61.36212 36171 ft 477 kts 213°
2026-05-04 03:55 25.84893 -61.39879 36169 ft 478 kts 213°
2026-05-04 03:56 25.79123 -61.43547 36171 ft 478 kts 213°
2026-05-04 03:56 25.73349 -61.47214 36170 ft 478 kts 213°
2026-05-04 03:57 25.67573 -61.50878 36170 ft 478 kts 213°
2026-05-04 03:57 25.61798 -61.54537 36168 ft 478 kts 213°
2026-05-04 03:58 25.53131 -61.60021 36164 ft 479 kts 213°
2026-05-04 03:58 25.47348 -61.63676 36165 ft 479 kts 213°
2026-05-04 03:59 25.41557 -61.67331 36164 ft 479 kts 212°
2026-05-04 03:59 25.35769 -61.70980 36171 ft 479 kts 212°
2026-05-04 04:00 25.29980 -61.74626 36163 ft 479 kts 212°
2026-05-04 04:00 25.24227 -61.78245 36170 ft 479 kts 212°
2026-05-04 04:01 25.18434 -61.81884 36168 ft 479 kts 212°
2026-05-04 04:01 25.12644 -61.85519 36174 ft 479 kts 212°
2026-05-04 04:02 25.06850 -61.89152 36166 ft 479 kts 212°
2026-05-04 04:02 25.01054 -61.92782 36172 ft 479 kts 212°
2026-05-04 04:03 24.95250 -61.96413 36163 ft 480 kts 212°
2026-05-04 04:03 24.89443 -62.00042 36170 ft 480 kts 212°
2026-05-04 04:04 24.83629 -62.03671 36172 ft 480 kts 212°
2026-05-04 04:04 24.77814 -62.07298 36153 ft 480 kts 212°
2026-05-04 04:05 24.71999 -62.10919 36168 ft 481 kts 212°
2026-05-04 04:05 24.66174 -62.14544 36168 ft 481 kts 212°
2026-05-04 04:06 24.60350 -62.18164 36157 ft 481 kts 212°
2026-05-04 04:06 24.54525 -62.21780 36159 ft 481 kts 212°
2026-05-04 04:07 24.48694 -62.25397 36154 ft 481 kts 212°
2026-05-04 04:07 24.43845 -62.28401 36161 ft 481 kts 212°
2026-05-04 04:08 24.38009 -62.32013 36157 ft 482 kts 212°
2026-05-04 04:08 24.32169 -62.35625 36160 ft 482 kts 212°
2026-05-04 04:09 24.26325 -62.39234 36162 ft 482 kts 212°
2026-05-04 04:09 24.20482 -62.42839 36155 ft 482 kts 212°
2026-05-04 04:10 24.14638 -62.46441 36156 ft 482 kts 212°
2026-05-04 04:10 24.08788 -62.50043 36151 ft 482 kts 212°
2026-05-04 04:11 24.02935 -62.53643 36157 ft 482 kts 212°
2026-05-04 04:11 23.97125 -62.57213 36147 ft 483 kts 212°
2026-05-04 04:12 23.91264 -62.60810 36144 ft 483 kts 212°
2026-05-04 04:12 23.85401 -62.64405 36150 ft 484 kts 212°
2026-05-04 04:13 23.79529 -62.68001 36150 ft 484 kts 212°
2026-05-04 04:13 23.73656 -62.71594 36146 ft 484 kts 212°
2026-05-04 04:14 23.67780 -62.75186 36149 ft 484 kts 212°
2026-05-04 04:14 23.61908 -62.78771 36150 ft 484 kts 212°
2026-05-04 04:15 23.56027 -62.82358 36147 ft 484 kts 212°
2026-05-04 04:15 23.50147 -62.85941 36144 ft 484 kts 212°
2026-05-04 04:16 23.44260 -62.89524 36146 ft 485 kts 212°
2026-05-04 04:16 23.38369 -62.93106 36143 ft 485 kts 212°
2026-05-04 04:17 23.32477 -62.96685 36145 ft 485 kts 212°
2026-05-04 04:17 23.26579 -63.00264 36139 ft 485 kts 212°
2026-05-04 04:18 23.20678 -63.03841 36140 ft 486 kts 212°
2026-05-04 04:18 23.14777 -63.07414 36141 ft 486 kts 212°
2026-05-04 04:19 23.08911 -63.10963 36138 ft 486 kts 212°
2026-05-04 04:19 23.03001 -63.14535 36138 ft 486 kts 212°
2026-05-04 04:20 22.97089 -63.18104 36138 ft 487 kts 211°
2026-05-04 04:20 22.91170 -63.21674 36139 ft 487 kts 211°
2026-05-04 04:21 22.85250 -63.25241 36139 ft 487 kts 211°
2026-05-04 04:21 22.79326 -63.28806 36138 ft 487 kts 211°
2026-05-04 04:22 22.73395 -63.32373 36135 ft 488 kts 211°
2026-05-04 04:22 22.67455 -63.35941 36135 ft 488 kts 211°
2026-05-04 04:23 22.61525 -63.39499 36122 ft 486 kts 211°
2026-05-04 04:23 22.55635 -63.43029 36128 ft 483 kts 211°
2026-05-04 04:24 22.49751 -63.46554 36136 ft 484 kts 211°
2026-05-04 04:24 22.43854 -63.50083 36126 ft 485 kts 211°
2026-05-04 04:25 22.37954 -63.53610 36125 ft 485 kts 211°
2026-05-04 04:25 22.32049 -63.57135 36129 ft 485 kts 211°
2026-05-04 04:26 22.26183 -63.60635 36125 ft 485 kts 211°
2026-05-04 04:26 22.20276 -63.64156 36125 ft 485 kts 211°
2026-05-04 04:27 22.14362 -63.67678 36122 ft 485 kts 211°
2026-05-04 04:27 22.08447 -63.71196 36120 ft 486 kts 211°
2026-05-04 04:28 22.02523 -63.74717 36116 ft 486 kts 211°
2026-05-04 04:28 21.96603 -63.78233 36116 ft 486 kts 211°
2026-05-04 04:29 21.90672 -63.81752 36129 ft 486 kts 211°
2026-05-04 04:29 21.84752 -63.85266 36129 ft 486 kts 211°
2026-05-04 04:30 21.78901 -63.88922 36120 ft 486 kts 212°
2026-05-04 04:30 21.73089 -63.92643 36107 ft 486 kts 212°
2026-05-04 04:31 21.67266 -63.96355 36113 ft 487 kts 212°
2026-05-04 04:31 21.61430 -64.00049 36120 ft 487 kts 212°
2026-05-04 04:32 21.55589 -64.03734 36119 ft 487 kts 212°
2026-05-04 04:32 21.49740 -64.07420 36114 ft 487 kts 212°
2026-05-04 04:33 21.43887 -64.11105 36106 ft 488 kts 212°
2026-05-04 04:33 21.38034 -64.14788 36112 ft 488 kts 212°
2026-05-04 04:34 21.32181 -64.18468 36110 ft 488 kts 212°
2026-05-04 04:34 21.26321 -64.22148 36111 ft 488 kts 212°
2026-05-04 04:35 21.20458 -64.25827 36111 ft 488 kts 212°
2026-05-04 04:35 21.14635 -64.29478 36109 ft 489 kts 212°
2026-05-04 04:36 21.08765 -64.33154 36100 ft 489 kts 212°
2026-05-04 04:36 21.02894 -64.36828 36102 ft 489 kts 212°
2026-05-04 04:37 20.91133 -64.44177 36101 ft 490 kts 212°
2026-05-04 04:38 20.85252 -64.47847 36099 ft 490 kts 212°
2026-05-04 04:38 20.79362 -64.51519 36105 ft 490 kts 212°
2026-05-04 04:39 20.73464 -64.55193 36101 ft 490 kts 212°
2026-05-04 04:39 20.67568 -64.58862 36095 ft 491 kts 212°
2026-05-04 04:40 20.61662 -64.62534 36095 ft 491 kts 212°
2026-05-04 04:40 20.55750 -64.66206 36092 ft 491 kts 212°
2026-05-04 04:41 20.49841 -64.69874 36095 ft 491 kts 212°
2026-05-04 04:41 20.43927 -64.73541 36092 ft 492 kts 212°
2026-05-04 04:42 20.39011 -64.76587 36094 ft 492 kts 212°
2026-05-04 04:42 20.34845 -64.79165 36094 ft 492 kts 212°
2026-05-04 04:43 20.28924 -64.82829 36090 ft 492 kts 212°
2026-05-04 04:43 20.22996 -64.86493 36092 ft 493 kts 212°
2026-05-04 04:44 20.17105 -64.90131 36089 ft 493 kts 212°
2026-05-04 04:44 20.11167 -64.93794 36087 ft 493 kts 212°
2026-05-04 04:45 20.05232 -64.97453 36084 ft 493 kts 211°
2026-05-04 04:47 19.84435 -65.10248 36082 ft 494 kts 211°
2026-05-04 04:47 19.78489 -65.13899 36082 ft 494 kts 212°
2026-05-04 04:48 19.72544 -65.17546 36078 ft 494 kts 212°
2026-05-04 04:49 19.57709 -65.26634 36076 ft 494 kts 212°
2026-05-04 04:49 19.51761 -65.30272 36075 ft 494 kts 212°
2026-05-04 04:50 19.45803 -65.33913 36073 ft 494 kts 212°
2026-05-04 04:50 19.39845 -65.37551 36073 ft 494 kts 212°
2026-05-04 04:51 19.33889 -65.41184 36069 ft 494 kts 212°
2026-05-04 04:51 19.27927 -65.44818 36068 ft 494 kts 212°
2026-05-04 04:52 19.21965 -65.48449 36068 ft 495 kts 212°
2026-05-04 04:52 19.16000 -65.52079 36069 ft 494 kts 212°
2026-05-04 04:53 19.10036 -65.55706 36064 ft 495 kts 212°
2026-05-04 04:53 19.04069 -65.59331 36066 ft 495 kts 212°
2026-05-04 04:54 18.98103 -65.62952 36066 ft 495 kts 212°
2026-05-04 04:54 18.92134 -65.66572 36068 ft 495 kts 212°
2026-05-04 04:55 18.86164 -65.70190 36068 ft 495 kts 212°
2026-05-04 04:55 18.80196 -65.73803 36071 ft 495 kts 212°
2026-05-04 04:56 18.74227 -65.77414 36073 ft 495 kts 212°
2026-05-04 04:56 18.68249 -65.81028 36084 ft 495 kts 212°
2026-05-04 04:57 18.62275 -65.84636 36091 ft 495 kts 212°
2026-05-04 04:57 18.56337 -65.88220 36102 ft 495 kts 212°
2026-05-04 04:58 18.51332 -65.91238 36108 ft 495 kts 212°
2026-05-04 04:58 18.45349 -65.94843 36112 ft 495 kts 212°
2026-05-04 04:59 18.38400 -65.99026 36110 ft 495 kts 212°
2026-05-04 04:59 18.32421 -66.02623 36108 ft 495 kts 212°
2026-05-04 05:00 18.27409 -66.05636 36099 ft 495 kts 212°
2026-05-04 05:01 18.18436 -66.11025 36083 ft 495 kts 212°
2026-05-04 05:01 18.12456 -66.14612 36074 ft 495 kts 212°
2026-05-04 05:02 18.06481 -66.18194 36072 ft 494 kts 212°
2026-05-04 05:02 18.00505 -66.21773 36064 ft 494 kts 212°
2026-05-04 05:03 17.94533 -66.25348 36066 ft 494 kts 212°
2026-05-04 05:04 17.82589 -66.32488 36061 ft 494 kts 212°
2026-05-04 05:04 17.76619 -66.36053 36054 ft 494 kts 212°
2026-05-04 05:06 17.52802 -66.50247 36046 ft 493 kts 212°
2026-05-04 05:07 17.46846 -66.53790 36046 ft 492 kts 212°
2026-05-04 05:07 17.40887 -66.57332 36042 ft 492 kts 212°
2026-05-04 05:09 17.14085 -66.73229 36038 ft 492 kts 212°
2026-05-04 05:10 17.08134 -66.76752 36041 ft 491 kts 212°
2026-05-04 05:10 17.02185 -66.80270 36048 ft 492 kts 212°
2026-05-04 05:11 16.96233 -66.83788 36048 ft 492 kts 212°
2026-05-04 05:11 16.90277 -66.87306 36046 ft 492 kts 212°
2026-05-04 05:12 16.84325 -66.90819 36042 ft 491 kts 212°
2026-05-04 05:12 16.78374 -66.94329 36044 ft 491 kts 212°
2026-05-04 05:13 16.72425 -66.97835 36043 ft 491 kts 212°
2026-05-04 05:13 16.66470 -67.01341 36042 ft 491 kts 212°
2026-05-04 05:14 16.60560 -67.04819 36045 ft 491 kts 212°
2026-05-04 05:14 16.54608 -67.08320 36039 ft 491 kts 212°
2026-05-04 05:15 16.48653 -67.11819 36041 ft 491 kts 212°
2026-05-04 05:15 16.42700 -67.15315 36041 ft 491 kts 212°
2026-05-04 05:16 16.36745 -67.18809 36038 ft 491 kts 212°
2026-05-04 05:16 16.30790 -67.22301 36038 ft 491 kts 212°
2026-05-04 05:17 16.24840 -67.25788 36037 ft 491 kts 212°
2026-05-04 05:17 16.18888 -67.29273 36031 ft 491 kts 212°
2026-05-04 05:18 16.12933 -67.32758 36033 ft 491 kts 212°
2026-05-04 05:18 16.06979 -67.36240 36031 ft 491 kts 212°
2026-05-04 05:19 16.01022 -67.39721 36031 ft 491 kts 212°
2026-05-04 05:19 15.95065 -67.43200 36031 ft 491 kts 212°
2026-05-04 05:20 15.89113 -67.46674 36029 ft 491 kts 212°
2026-05-04 05:20 15.83175 -67.50179 36026 ft 490 kts 216°
2026-05-04 05:21 15.77959 -67.54580 36029 ft 486 kts 225°
2026-05-04 05:21 15.73021 -67.59360 36027 ft 485 kts 226°
2026-05-04 05:22 15.68055 -67.64105 36024 ft 486 kts 225°
2026-05-04 05:22 15.63020 -67.68784 36026 ft 486 kts 224°
2026-05-04 05:23 15.57959 -67.73429 36023 ft 486 kts 224°
2026-05-04 05:23 15.52896 -67.78068 36023 ft 486 kts 224°
2026-05-04 05:24 15.47830 -67.82712 36019 ft 486 kts 224°
2026-05-04 05:24 15.42766 -67.87355 36018 ft 486 kts 224°
2026-05-04 05:25 15.37701 -67.91996 36019 ft 486 kts 224°
2026-05-04 05:25 15.32637 -67.96634 36016 ft 486 kts 224°
2026-05-04 05:26 15.27572 -68.01269 36015 ft 486 kts 224°
2026-05-04 05:26 15.22510 -68.05899 36016 ft 485 kts 224°
2026-05-04 05:28 15.02275 -68.24374 36011 ft 485 kts 224°
2026-05-04 05:29 14.97220 -68.28982 36010 ft 484 kts 224°
2026-05-04 05:29 14.92166 -68.33585 36009 ft 484 kts 224°
2026-05-04 05:31 14.71985 -68.51939 36006 ft 482 kts 224°
2026-05-04 05:32 14.66944 -68.56516 36001 ft 482 kts 224°
2026-05-04 05:33 14.59379 -68.63379 36004 ft 483 kts 224°
2026-05-04 05:33 14.54334 -68.67953 36002 ft 483 kts 224°
2026-05-04 05:34 14.49286 -68.72526 36001 ft 483 kts 223°
2026-05-04 05:34 14.44238 -68.77096 35998 ft 483 kts 223°
2026-05-04 05:35 14.39183 -68.81670 36000 ft 483 kts 223°
2026-05-04 05:35 14.34136 -68.86234 35996 ft 482 kts 223°
2026-05-04 05:36 14.29123 -68.90764 35918 ft 481 kts 223°
2026-05-04 05:36 14.26556 -68.93083 35206 ft 486 kts 223°
2026-05-04 05:36 14.24047 -68.95349 34467 ft 486 kts 223°
2026-05-04 05:36 14.21501 -68.97647 33558 ft 488 kts 223°
2026-05-04 05:37 14.18946 -68.99953 32592 ft 489 kts 223°
2026-05-04 05:37 14.16385 -69.02263 31768 ft 488 kts 223°
2026-05-04 05:37 14.13849 -69.04549 31127 ft 482 kts 223°
2026-05-04 05:38 14.08840 -69.09062 29837 ft 475 kts 223°
2026-05-04 05:38 14.06365 -69.11292 29139 ft 470 kts 223°
2026-05-04 05:38 14.03915 -69.13499 28501 ft 466 kts 223°
2026-05-04 05:38 14.01489 -69.15683 27872 ft 461 kts 223°
2026-05-04 05:39 13.99084 -69.17849 27279 ft 457 kts 223°
2026-05-04 05:39 13.94338 -69.22121 26095 ft 449 kts 223°
2026-05-04 05:39 13.91993 -69.24231 25509 ft 447 kts 222°
2026-05-04 05:40 13.87556 -69.28221 24383 ft 443 kts 222°
2026-05-04 05:40 13.85237 -69.30306 23810 ft 442 kts 221°
2026-05-04 05:40 13.82926 -69.32382 23151 ft 440 kts 221°
2026-05-04 05:41 13.80624 -69.34450 22522 ft 438 kts 221°
2026-05-04 05:41 13.78343 -69.36499 21918 ft 435 kts 221°
2026-05-04 05:41 13.76069 -69.38541 21351 ft 431 kts 221°
2026-05-04 05:41 13.73815 -69.40564 20789 ft 429 kts 220°
2026-05-04 05:42 13.71581 -69.42569 20218 ft 426 kts 220°
2026-05-04 05:42 13.69353 -69.44566 19656 ft 424 kts 220°
2026-05-04 05:42 13.67136 -69.46555 19087 ft 422 kts 220°
2026-05-04 05:42 13.64926 -69.48538 18523 ft 421 kts 220°
2026-05-04 05:43 13.62723 -69.50513 17907 ft 420 kts 219°
2026-05-04 05:43 13.60528 -69.52479 17306 ft 417 kts 219°
2026-05-04 05:43 13.58347 -69.54434 16738 ft 415 kts 219°
2026-05-04 05:45 13.43311 -69.67892 12773 ft 406 kts 219°
2026-05-04 05:45 13.41232 -69.69752 12223 ft 404 kts 219°
2026-05-04 05:47 13.27239 -69.82257 10217 ft 348 kts 218°
2026-05-04 05:47 13.25437 -69.83865 10078 ft 339 kts 218°
2026-05-04 05:47 13.23683 -69.85430 9922 ft 330 kts 218°
2026-05-04 05:48 13.22551 -69.86441 9912 ft 321 kts 218°
2026-05-04 05:48 13.20884 -69.87929 9803 ft 328 kts 218°
2026-05-04 05:48 13.19046 -69.89557 9891 ft 356 kts 218°
2026-05-04 05:48 13.17234 -69.91171 9755 ft 334 kts 218°
2026-05-04 05:49 13.15541 -69.92686 9550 ft 313 kts 218°
2026-05-04 05:49 13.13942 -69.94116 9264 ft 297 kts 218°
2026-05-04 05:49 13.12403 -69.95488 8839 ft 290 kts 218°
2026-05-04 05:49 13.10895 -69.96831 8460 ft 281 kts 218°
2026-05-04 05:51 13.00327 -70.06235 7307 ft 296 kts 218°
2026-05-04 05:51 12.98773 -70.07618 7136 ft 295 kts 218°
2026-05-04 05:52 12.97221 -70.09001 6956 ft 295 kts 218°
2026-05-04 05:52 12.95677 -70.10376 6768 ft 290 kts 218°
2026-05-04 05:52 12.94169 -70.11719 6605 ft 284 kts 218°
2026-05-04 05:52 12.92689 -70.13035 6432 ft 279 kts 218°
2026-05-04 05:53 12.91235 -70.14329 6265 ft 275 kts 218°
2026-05-04 05:54 12.78728 -70.17430 5162 ft 266 kts 184°
2026-05-04 05:55 12.76904 -70.17701 5010 ft 264 kts 184°
2026-05-04 05:55 12.75082 -70.17973 4857 ft 264 kts 184°
2026-05-04 05:55 12.73272 -70.18244 4706 ft 262 kts 184°
2026-05-04 05:55 12.71469 -70.18514 4533 ft 261 kts 184°
2026-05-04 05:56 12.69677 -70.18784 4382 ft 261 kts 184°
2026-05-04 05:56 12.67884 -70.19051 4218 ft 260 kts 184°
2026-05-04 05:56 12.66097 -70.19319 3863 ft 255 kts 184°
2026-05-04 05:56 12.64376 -70.19593 3433 ft 245 kts 186°
2026-05-04 05:57 12.62745 -70.19980 3043 ft 234 kts 188°
2026-05-04 05:57 12.61237 -70.20421 2707 ft 218 kts 190°
2026-05-04 05:57 12.59824 -70.20872 2280 ft 209 kts 189°
2026-05-04 05:57 12.58500 -70.21319 2071 ft 188 kts 189°
2026-05-04 05:58 12.57255 -70.21702 2025 ft 187 kts 186°
2026-05-04 05:58 12.56050 -70.21705 2001 ft 168 kts 148°
2026-05-04 05:58 12.55276 -70.20917 2001 ft 155 kts 111°
2026-05-04 05:58 12.54853 -70.19900 2000 ft 155 kts 109°
2026-05-04 05:59 12.54476 -70.18890 2009 ft 148 kts 109°
2026-05-04 05:59 12.54123 -70.17920 2013 ft 140 kts 106°
2026-05-04 05:59 12.53864 -70.17062 1995 ft 119 kts 103°
2026-05-04 05:59 12.53651 -70.16256 2005 ft 118 kts 102°
2026-05-04 06:00 12.53447 -70.15435 1999 ft 120 kts 102°
2026-05-04 06:00 12.53245 -70.14598 1999 ft 122 kts 102°
2026-05-04 06:00 12.53043 -70.13757 2002 ft 121 kts 101°
2026-05-04 06:00 12.52845 -70.12925 1982 ft 120 kts 101°
2026-05-04 06:01 12.52647 -70.12088 1817 ft 122 kts 101°
2026-05-04 06:01 12.52444 -70.11232 1659 ft 126 kts 102°
2026-05-04 06:03 12.50952 -70.04960 508 ft 127 kts 101°
2026-05-04 06:03 12.50753 -70.04089 303 ft 125 kts 102°
2026-05-04 06:05 12.50055 -70.00694 46 ft 0 kts 11°
2026-05-04 06:06 12.50107 -70.00682 47 ft 11 kts 14°
2026-05-04 06:06 12.50168 -70.00703 45 ft 8 kts 304°
2026-05-04 06:07 12.50187 -70.00760 47 ft 9 kts 295°
2026-05-04 06:07 12.50214 -70.00777 48 ft 3 kts
2026-05-04 06:07 12.50242 -70.00769 48 ft 5 kts 14°
2026-05-04 06:07 12.50266 -70.00763 51 ft 0 kts 14°